<- Previous Day | Today | Next Day ->

All Data for 03 December 2019

 

Time A - D Temp A - D Dew Point A - D Humidity A - D Pressure A - D Wind A - D Wind Dir Gust A - D Rain Rate A - D Rain Total
00:01 1.6 -1.6 79 1031.3 1.6 N 2.2 0.0 0.0
00:02 1.6 -1.6 79 1031.4 1.6 N 2.2 0.0 0.0
00:03 1.6 -1.6 79 1031.3 1.6 N 2.2 0.0 0.0
00:04 1.6 -1.6 79 1031.2 1.6 N 2.2 0.0 0.0
00:05 1.6 -1.6 79 1031.3 1.6 N 2.2 0.0 0.0
00:06 1.6 -1.6 79 1031.3 1.6 N 2.2 0.0 0.0
00:07 1.6 -1.6 79 1031.3 1.6 N 2.2 0.0 0.0
00:08 1.6 -1.6 79 1031.2 1.6 N 2.2 0.0 0.0
00:09 1.5 -1.7 79 1031.2 0.0 NE 1.6 0.0 0.0
00:10 1.5 -1.7 79 1031.2 2.2 NE 2.2 0.0 0.0
00:11 1.5 -1.7 79 1031.2 2.2 NE 2.2 0.0 0.0
00:12 1.5 -1.7 79 1031.1 1.6 N 2.2 0.0 0.0
00:13 1.5 -1.7 79 1031.1 2.2 NE 2.2 0.0 0.0
00:14 1.4 -1.8 79 1031.2 2.2 NE 2.2 0.0 0.0
00:16 1.4 -1.8 79 1031.1 1.6 NE 2.2 0.0 0.0
00:17 1.4 -1.8 79 1031.1 1.6 NE 2.2 0.0 0.0
00:18 1.4 -1.8 79 1031.0 2.2 NE 2.2 0.0 0.0
00:19 1.3 -1.9 79 1031.1 1.6 NE 2.2 0.0 0.0
00:20 1.3 -1.9 79 1031.1 1.6 NE 2.2 0.0 0.0
00:21 1.3 -1.9 79 1030.9 1.6 NE 2.2 0.0 0.0
00:22 1.3 -1.9 79 1030.9 1.6 NE 2.2 0.0 0.0
00:23 1.3 -1.9 79 1030.9 0.0 NE 2.2 0.0 0.0
00:24 1.3 -1.9 79 1031.0 0.0 NE 2.2 0.0 0.0
00:25 1.2 -2.0 79 1030.9 0.0 NE 2.2 0.0 0.0
00:26 1.2 -2.0 79 1030.9 0.0 NE 2.2 0.0 0.0
00:27 1.2 -2.0 79 1030.8 0.0 NE 2.2 0.0 0.0
00:28 1.1 -2.1 79 1030.8 0.0 NE 1.6 0.0 0.0
00:30 1.1 -2.1 79 1030.8 0.0 N 1.6 0.0 0.0
00:31 1.1 -2.1 79 1030.8 0.0 N 1.6 0.0 0.0
00:32 1.1 -2.1 79 1030.9 0.0 N 0.0 0.0 0.0
00:33 1.0 -2.2 79 1030.8 0.0 N 0.0 0.0 0.0
00:34 1.0 -2.2 79 1030.9 0.0 N 0.0 0.0 0.0
00:35 1.0 -2.2 79 1030.8 0.0 N 0.0 0.0 0.0
00:36 1.0 -2.2 79 1030.7 0.0 N 0.0 0.0 0.0
00:37 1.0 -2.2 79 1030.8 0.0 N 0.0 0.0 0.0
00:38 1.0 -2.2 79 1030.7 0.0 N 0.0 0.0 0.0
00:39 1.0 -2.2 79 1030.8 0.0 N 0.0 0.0 0.0
00:40 1.0 -2.2 79 1030.7 0.0 N 0.0 0.0 0.0
00:41 1.0 -2.2 79 1030.7 0.0 N 0.0 0.0 0.0
00:42 1.0 -2.2 79 1030.7 0.0 N 0.0 0.0 0.0
00:44 1.0 -2.2 79 1030.7 0.0 N 0.0 0.0 0.0
00:45 1.0 -2.2 79 1030.7 0.0 N 0.0 0.0 0.0
00:46 1.0 -2.2 79 1030.8 0.0 N 0.0 0.0 0.0
00:47 1.1 -2.1 79 1030.7 0.0 N 0.0 0.0 0.0
00:48 1.1 -2.1 79 1030.7 0.0 N 0.0 0.0 0.0
00:49 1.0 -2.2 79 1030.7 0.0 N 0.0 0.0 0.0
00:50 1.0 -2.2 79 1030.9 0.0 N 0.0 0.0 0.0
00:51 1.0 -2.2 79 1030.7 0.0 N 0.0 0.0 0.0
00:52 1.0 -2.2 79 1030.7 0.0 N 0.0 0.0 0.0
00:53 1.0 -2.2 79 1030.7 0.0 N 0.0 0.0 0.0
00:54 1.0 -2.2 79 1030.6 0.0 N 0.0 0.0 0.0
00:55 1.0 -2.2 79 1030.7 0.7 N 0.7 0.0 0.0
00:56 1.0 -2.2 79 1030.8 0.7 N 0.7 0.0 0.0
00:58 1.0 -2.2 79 1030.6 0.0 N 0.7 0.0 0.0
00:59 1.0 -2.2 79 1030.8 0.0 N 0.7 0.0 0.0
01:00 1.0 -2.2 79 1030.9 0.0 N 0.7 0.0 0.0
01:01 1.0 -2.2 79 1030.8 0.0 N 0.7 0.0 0.0
01:03 1.0 -2.2 79 1030.7 0.0 N 0.7 0.0 0.0
01:04 1.0 -2.2 79 1030.7 0.0 N 0.7 0.0 0.0
01:05 1.0 -2.2 79 1030.6 0.0 N 0.7 0.0 0.0
01:06 1.0 -2.2 79 1030.8 0.0 N 0.7 0.0 0.0
01:07 1.0 -2.2 79 1030.8 0.0 N 0.0 0.0 0.0
01:08 1.0 -2.2 79 1030.7 0.7 N 0.7 0.0 0.0
01:09 1.0 -2.2 79 1030.7 0.7 N 0.7 0.0 0.0
01:10 1.0 -2.2 79 1030.7 0.0 N 0.7 0.0 0.0
01:11 1.0 -2.2 79 1030.8 0.0 N 0.7 0.0 0.0
01:12 1.0 -2.2 79 1030.6 0.0 N 0.7 0.0 0.0
01:13 1.0 -2.2 79 1030.7 0.0 N 0.7 0.0 0.0
01:14 1.0 -2.2 79 1030.6 0.0 N 0.7 0.0 0.0
01:15 1.0 -2.2 79 1030.7 0.7 N 1.6 0.0 0.0
01:17 1.1 -2.0 80 1030.6 0.0 N 1.6 0.0 0.0
01:18 1.1 -2.1 79 1030.7 0.0 N 1.6 0.0 0.0
01:19 1.1 -2.0 80 1030.7 0.0 N 1.6 0.0 0.0
01:20 1.1 -2.0 80 1030.7 0.0 N 1.6 0.0 0.0
01:21 1.1 -2.0 80 1030.7 0.0 N 1.6 0.0 0.0
01:22 1.1 -2.0 80 1030.7 0.0 N 1.6 0.0 0.0
01:23 1.1 -2.0 80 1030.7 0.0 N 1.6 0.0 0.0
01:24 1.2 -1.9 80 1030.7 0.0 N 1.6 0.0 0.0
01:25 1.2 -1.9 80 1030.5 0.0 N 1.6 0.0 0.0
01:26 1.2 -1.9 80 1030.5 1.6 N 1.6 0.0 0.0
01:27 1.2 -1.9 80 1030.5 0.7 N 1.6 0.0 0.0
01:28 1.2 -1.9 80 1030.5 0.7 N 1.6 0.0 0.0
01:30 1.2 -1.9 80 1030.4 0.0 N 1.6 0.0 0.0
01:31 1.2 -1.9 80 1030.3 0.0 N 1.6 0.0 0.0
01:32 1.2 -1.9 80 1030.3 0.0 N 1.6 0.0 0.0
01:33 1.2 -1.9 80 1030.4 0.0 N 1.6 0.0 0.0
01:34 1.2 -1.9 80 1030.3 0.0 N 1.6 0.0 0.0
01:35 1.2 -1.9 80 1030.3 0.0 N 1.6 0.0 0.0
01:36 1.2 -1.9 80 1030.3 0.0 N 1.6 0.0 0.0
01:37 1.2 -1.9 80 1030.3 0.0 N 0.7 0.0 0.0
01:38 1.2 -1.9 80 1030.3 0.0 N 0.0 0.0 0.0
01:39 1.2 -1.9 80 1030.3 0.0 N 0.0 0.0 0.0
01:40 1.2 -1.9 80 1030.3 0.0 N 0.0 0.0 0.0
01:41 1.2 -1.9 80 1030.2 0.0 N 0.0 0.0 0.0
01:42 1.2 -1.9 80 1030.2 0.0 N 0.0 0.0 0.0
01:43 1.2 -1.9 80 1030.2 0.0 N 0.0 0.0 0.0
01:44 1.2 -1.9 80 1030.2 0.7 N 0.7 0.0 0.0
01:46 1.2 -1.9 80 1030.3 0.7 N 0.7 0.0 0.0
01:47 1.3 -1.8 80 1030.2 1.6 N 1.6 0.0 0.0
01:48 1.3 -1.8 80 1030.1 0.7 N 1.6 0.0 0.0
01:49 1.3 -1.8 80 1030.2 0.0 N 1.6 0.0 0.0
01:50 1.3 -1.8 80 1030.2 0.0 N 1.6 0.0 0.0
01:51 1.3 -1.8 80 1030.3 0.0 N 1.6 0.0 0.0
01:52 1.3 -1.8 80 1030.2 0.0 N 1.6 0.0 0.0
01:53 1.3 -1.8 80 1030.2 0.0 N 1.6 0.0 0.0
01:54 1.3 -1.8 80 1030.0 0.0 N 1.6 0.0 0.0
01:55 1.2 -1.9 80 1030.0 1.6 N 1.6 0.0 0.0
01:56 1.2 -1.9 80 1030.1 1.6 N 1.6 0.0 0.0
01:57 1.2 -1.9 80 1030.1 1.6 N 1.6 0.0 0.0
01:58 1.2 -1.9 80 1030.1 1.6 N 1.6 0.0 0.0
01:59 1.2 -1.9 80 1030.1 1.6 N 1.6 0.0 0.0
02:01 1.2 -1.9 80 1030.1 1.6 N 1.6 0.0 0.0
02:02 1.2 -1.9 80 1030.0 1.6 N 1.6 0.0 0.0
02:03 1.2 -1.9 80 1030.2 1.6 N 1.6 0.0 0.0
02:04 1.2 -1.9 80 1030.2 1.6 N 1.6 0.0 0.0
02:05 1.3 -1.8 80 1030.1 1.6 N 1.6 0.0 0.0
02:06 1.3 -1.8 80 1030.0 1.6 N 1.6 0.0 0.0
02:07 1.3 -1.8 80 1030.2 1.6 N 1.6 0.0 0.0
02:08 1.4 -1.7 80 1030.1 2.2 N 2.2 0.0 0.0
02:09 1.4 -1.7 80 1030.2 1.6 N 2.2 0.0 0.0
02:10 1.4 -1.7 80 1030.1 0.7 N 2.2 0.0 0.0
02:11 1.5 -1.6 80 1029.9 0.0 N 2.2 0.0 0.0
02:12 1.5 -1.6 80 1030.1 0.0 N 2.2 0.0 0.0
02:13 1.5 -1.6 80 1030.1 0.0 N 2.2 0.0 0.0
02:14 1.5 -1.6 80 1030.0 0.0 N 2.2 0.0 0.0
02:15 1.4 -1.7 80 1030.0 0.7 N 2.2 0.0 0.0
02:17 1.4 -1.7 80 1030.0 1.6 N 2.2 0.0 0.0
02:18 1.4 -1.7 80 1030.1 1.6 N 1.6 0.0 0.0
02:19 1.4 -1.7 80 1030.1 0.7 N 1.6 0.0 0.0
02:20 1.4 -1.7 80 1030.0 0.7 N 1.6 0.0 0.0
02:21 1.4 -1.7 80 1029.9 0.0 N 1.6 0.0 0.0
02:22 1.4 -1.7 80 1030.0 0.0 N 1.6 0.0 0.0
02:23 1.4 -1.7 80 1030.1 0.0 N 1.6 0.0 0.0
02:24 1.4 -1.7 80 1029.9 0.0 N 1.6 0.0 0.0
02:25 1.3 -1.8 80 1030.0 0.0 N 1.6 0.0 0.0
02:26 1.3 -1.8 80 1030.1 0.0 N 1.6 0.0 0.0
02:27 1.3 -1.8 80 1030.0 0.0 N 1.6 0.0 0.0
02:28 1.3 -1.8 80 1030.0 1.6 N 1.6 0.0 0.0
02:29 1.4 -1.7 80 1030.0 0.7 N 1.6 0.0 0.0
02:31 1.3 -1.8 80 1029.8 0.7 N 1.6 0.0 0.0
02:32 1.4 -1.7 80 1030.1 0.0 N 1.6 0.0 0.0
02:33 1.4 -1.7 80 1029.8 0.0 N 1.6 0.0 0.0
02:34 1.4 -1.7 80 1029.9 0.0 N 1.6 0.0 0.0
02:35 1.4 -1.7 80 1030.0 0.0 N 1.6 0.0 0.0
02:36 1.4 -1.7 80 1030.0 0.0 N 1.6 0.0 0.0
02:37 1.4 -1.7 80 1029.9 0.0 SE 1.6 0.0 0.0
02:38 1.4 -1.7 80 1029.9 0.0 SE 1.6 0.0 0.0
02:39 1.4 -1.7 80 1030.0 0.0 SE 1.6 0.0 0.0
02:40 1.4 -1.7 80 1030.2 0.0 SE 1.6 0.0 0.0
02:41 1.4 -1.7 80 1029.9 0.0 N 0.7 0.0 0.0
02:42 1.4 -1.7 80 1029.9 0.0 N 0.0 0.0 0.0
02:43 1.3 -1.8 80 1029.9 0.0 N 0.0 0.0 0.0
02:45 1.3 -1.8 80 1029.9 0.0 N 0.0 0.0 0.0
02:46 1.3 -1.8 80 1029.9 0.0 N 0.0 0.0 0.0
02:47 1.3 -1.8 80 1029.8 0.7 N 0.7 0.0 0.0
02:48 1.3 -1.8 80 1029.9 0.7 N 0.7 0.0 0.0
02:49 1.3 -1.8 80 1029.9 0.7 N 0.7 0.0 0.0
02:50 1.4 -1.7 80 1029.7 1.6 N 1.6 0.0 0.0
02:51 1.4 -1.7 80 1029.7 1.6 N 1.6 0.0 0.0
02:52 1.4 -1.7 80 1029.9 1.6 N 1.6 0.0 0.0
02:53 1.4 -1.7 80 1029.9 0.7 N 1.6 0.0 0.0
02:54 1.5 -1.4 81 1029.7 0.7 N 1.6 0.0 0.0
02:55 1.5 -1.4 81 1029.7 0.0 N 1.6 0.0 0.0
02:56 1.5 -1.4 81 1029.8 0.0 N 1.6 0.0 0.0
02:57 1.5 -1.4 81 1029.8 0.0 N 1.6 0.0 0.0
02:59 1.5 -1.4 81 1029.8 0.0 N 1.6 0.0 0.0
03:00 1.5 -1.4 81 1029.8 0.0 N 1.6 0.0 0.0
03:01 1.5 -1.4 81 1029.9 0.0 N 1.6 0.0 0.0
03:02 1.5 -1.4 81 1029.7 0.0 N 0.7 0.0 0.0
03:03 1.5 -1.4 81 1029.7 0.0 N 0.7 0.0 0.0
03:04 1.5 -1.4 81 1029.7 0.0 N 0.0 0.0 0.0
03:05 1.5 -1.4 81 1029.7 0.0 N 0.0 0.0 0.0
03:06 1.5 -1.4 81 1029.7 0.0 N 0.0 0.0 0.0
03:07 1.5 -1.4 81 1029.8 0.0 N 0.0 0.0 0.0
03:08 1.5 -1.4 81 1029.7 0.0 N 0.0 0.0 0.0
03:09 1.5 -1.4 81 1029.7 0.0 N 0.0 0.0 0.0
03:10 1.5 -1.6 80 1029.7 0.0 N 0.0 0.0 0.0
03:11 1.5 -1.6 80 1029.7 0.0 N 0.0 0.0 0.0
03:12 1.5 -1.6 80 1029.7 0.0 N 0.0 0.0 0.0
03:13 1.5 -1.6 80 1029.7 0.0 N 0.0 0.0 0.0
03:15 1.5 -1.6 80 1029.7 0.0 N 0.0 0.0 0.0
03:16 1.5 -1.4 81 1029.7 0.0 N 0.0 0.0 0.0
03:17 1.5 -1.4 81 1029.5 0.0 N 0.0 0.0 0.0
03:18 1.5 -1.4 81 1029.5 0.7 N 0.7 0.0 0.0
03:19 1.6 -1.3 81 1029.7 0.7 S 0.7 0.0 0.0
03:20 1.6 -1.3 81 1029.7 0.7 S 0.7 0.0 0.0
03:21 1.6 -1.3 81 1029.6 0.0 S 0.7 0.0 0.0
03:22 1.6 -1.3 81 1029.7 0.0 S 0.7 0.0 0.0
03:23 1.6 -1.3 81 1029.6 0.0 S 0.7 0.0 0.0
03:24 1.6 -1.3 81 1029.4 0.0 S 0.7 0.0 0.0
03:25 1.6 -1.5 80 1029.6 0.0 S 0.7 0.0 0.0
03:26 1.6 -1.3 81 1029.7 0.0 S 0.7 0.0 0.0
03:27 1.6 -1.5 80 1029.5 0.0 S 0.7 0.0 0.0
03:29 1.6 -1.5 80 1029.5 0.0 NW 0.7 0.0 0.0
03:30 1.6 -1.5 80 1029.6 0.0 NW 0.0 0.0 0.0
03:31 1.6 -1.5 80 1029.4 0.0 NW 0.0 0.0 0.0
03:32 1.6 -1.5 80 1029.5 0.0 NW 0.0 0.0 0.0
03:33 1.6 -1.5 80 1029.5 0.0 NW 0.0 0.0 0.0
03:34 1.6 -1.5 80 1029.3 0.0 NW 0.0 0.0 0.0
03:35 1.6 -1.5 80 1029.5 0.0 NW 0.0 0.0 0.0
03:36 1.6 -1.5 80 1029.5 0.0 NW 0.0 0.0 0.0
03:37 1.6 -1.5 80 1029.3 0.0 NW 0.0 0.0 0.0
03:38 1.6 -1.3 81 1029.4 0.0 NW 0.0 0.0 0.0
03:39 1.6 -1.5 80 1029.4 0.0 NW 0.0 0.0 0.0
03:40 1.6 -1.5 80 1029.4 0.0 NW 0.0 0.0 0.0
03:41 1.6 -1.5 80 1029.5 0.0 NW 0.0 0.0 0.0
03:42 1.6 -1.5 80 1029.3 0.0 NW 0.0 0.0 0.0
03:43 1.6 -1.5 80 1029.4 0.0 NW 0.0 0.0 0.0
03:44 1.6 -1.5 80 1029.4 0.0 NW 0.0 0.0 0.0
03:45 1.6 -1.5 80 1029.3 0.0 NW 0.0 0.0 0.0
03:46 1.6 -1.5 80 1029.2 0.0 NW 0.0 0.0 0.0
03:47 1.6 -1.5 80 1029.4 0.7 NW 0.7 0.0 0.0
03:49 1.6 -1.3 81 1029.2 0.0 NW 0.7 0.0 0.0
03:50 1.6 -1.3 81 1029.3 0.0 NW 0.7 0.0 0.0
03:51 1.6 -1.3 81 1029.3 0.0 NW 0.7 0.0 0.0
03:52 1.6 -1.5 80 1029.3 0.0 NW 0.7 0.0 0.0
03:53 1.6 -1.3 81 1029.3 0.0 NW 0.7 0.0 0.0
03:54 1.6 -1.3 81 1029.2 0.0 NW 0.7 0.0 0.0
03:55 1.6 -1.3 81 1029.3 0.7 N 0.7 0.0 0.0
03:56 1.6 -1.3 81 1029.3 0.7 N 0.7 0.0 0.0
03:57 1.6 -1.3 81 1029.4 1.6 NE 1.6 0.0 0.0
03:58 1.6 -1.3 81 1029.2 0.7 NE 1.6 0.0 0.0
03:59 1.6 -1.3 81 1029.2 0.7 NE 1.6 0.0 0.0
04:00 1.7 -1.2 81 1029.3 0.0 NW 1.6 0.0 0.0
04:01 1.7 -1.2 81 1029.2 0.0 NW 1.6 0.0 0.0
04:02 1.7 -1.2 81 1029.2 0.0 NW 1.6 0.0 0.0
04:04 1.7 -1.2 81 1029.2 0.0 NW 1.6 0.0 0.0
04:05 1.7 -1.2 81 1029.1 0.0 NW 1.6 0.0 0.0
04:06 1.7 -1.2 81 1029.2 0.0 NW 1.6 0.0 0.0
04:07 1.8 -1.1 81 1029.2 0.0 NW 1.6 0.0 0.0
04:08 1.8 -1.1 81 1029.1 0.0 NW 0.7 0.0 0.0
04:09 1.8 -1.1 81 1029.1 0.0 NW 0.7 0.0 0.0
04:10 1.8 -1.1 81 1029.2 0.0 NW 0.0 0.0 0.0
04:11 1.7 -1.2 81 1029.1 0.0 NW 0.0 0.0 0.0
04:12 1.7 -1.2 81 1029.1 0.0 NW 0.0 0.0 0.0
04:13 1.7 -1.2 81 1029.2 0.0 NW 0.0 0.0 0.0
04:14 1.7 -1.2 81 1029.1 0.0 NW 0.0 0.0 0.0
04:15 1.7 -1.2 81 1029.0 0.0 NW 0.0 0.0 0.0
04:16 1.6 -1.3 81 1029.2 0.0 NW 0.0 0.0 0.0
04:17 1.6 -1.3 81 1029.1 0.0 NW 0.0 0.0 0.0
04:19 1.6 -1.3 81 1029.1 0.0 NW 0.7 0.0 0.0
04:20 1.6 -1.3 81 1028.8 0.0 NW 0.7 0.0 0.0
04:21 1.6 -1.3 81 1029.1 0.0 NW 0.7 0.0 0.0
04:22 1.6 -1.3 81 1029.1 0.0 NW 0.7 0.0 0.0
04:23 1.6 -1.3 81 1029.0 0.0 NW 0.7 0.0 0.0
04:24 1.6 -1.3 81 1029.1 0.0 NW 0.7 0.0 0.0
04:25 1.6 -1.3 81 1029.0 0.0 NW 0.7 0.0 0.0
04:26 1.6 -1.3 81 1029.0 0.0 NW 0.7 0.0 0.0
04:27 1.6 -1.3 81 1029.0 0.0 NW 0.7 0.0 0.0
04:28 1.6 -1.3 81 1029.1 0.0 NW 0.7 0.0 0.0
04:29 1.6 -1.3 81 1029.1 0.0 NW 0.7 0.0 0.0
04:30 1.6 -1.3 81 1029.1 0.0 NW 0.0 0.0 0.0
04:31 1.6 -1.3 81 1028.9 0.0 NW 0.0 0.0 0.0
04:33 1.6 -1.3 81 1028.9 0.0 NW 0.0 0.0 0.0
04:34 1.6 -1.3 81 1028.9 0.0 NW 0.0 0.0 0.0
04:35 1.6 -1.3 81 1028.9 0.0 NW 0.0 0.0 0.0
04:36 1.6 -1.3 81 1028.8 0.0 NW 0.0 0.0 0.0
04:37 1.6 -1.3 81 1028.8 0.0 NW 0.0 0.0 0.0
04:38 1.7 -1.2 81 1028.8 0.0 NW 0.0 0.0 0.0
04:39 1.7 -1.2 81 1028.8 0.0 NW 0.0 0.0 0.0
04:40 1.7 -1.2 81 1028.8 0.0 NW 0.0 0.0 0.0
04:41 1.7 -1.2 81 1028.7 0.0 NW 0.0 0.0 0.0
04:42 1.7 -1.2 81 1028.9 0.0 NW 0.0 0.0 0.0
04:43 1.7 -1.2 81 1029.0 0.0 NW 0.0 0.0 0.0
04:44 1.7 -1.2 81 1028.7 0.0 NW 0.0 0.0 0.0
04:45 1.7 -1.2 81 1028.7 0.0 NE 0.0 0.0 0.0
04:47 1.8 -1.1 81 1028.8 0.0 N 0.7 0.0 0.0
04:48 1.8 -1.1 81 1028.8 0.0 N 0.7 0.0 0.0
04:49 1.8 -1.1 81 1028.7 0.0 N 0.7 0.0 0.0
04:50 1.8 -1.1 81 1028.7 0.7 N 0.7 0.0 0.0
04:51 1.8 -1.1 81 1028.6 0.0 N 0.7 0.0 0.0
04:52 1.8 -1.1 81 1028.7 0.0 N 0.7 0.0 0.0
04:53 1.9 -1.0 81 1028.8 0.0 N 0.7 0.0 0.0
04:54 1.9 -1.0 81 1028.6 0.0 N 0.7 0.0 0.0
04:55 1.9 -1.0 81 1028.8 0.0 N 0.7 0.0 0.0
04:56 1.9 -1.0 81 1028.7 0.0 N 0.7 0.0 0.0
04:57 1.8 -1.1 81 1028.7 0.0 N 0.7 0.0 0.0
04:58 1.8 -1.1 81 1028.8 0.0 N 0.7 0.0 0.0
04:59 1.8 -1.1 81 1028.7 0.0 N 0.7 0.0 0.0
05:00 1.8 -1.1 81 1028.7 0.0 N 0.0 0.0 0.0
05:01 1.8 -1.1 81 1028.7 0.0 N 0.0 0.0 0.0
05:02 1.8 -1.1 81 1028.7 0.0 N 0.0 0.0 0.0
05:04 1.8 -1.1 81 1028.7 0.0 N 0.0 0.0 0.0
05:05 1.8 -1.1 81 1028.7 0.0 N 0.0 0.0 0.0
05:06 1.8 -1.1 81 1028.8 0.0 N 0.0 0.0 0.0
05:07 1.8 -1.1 81 1028.7 0.0 NE 0.0 0.0 0.0
05:08 1.8 -1.1 81 1028.7 0.0 NE 0.0 0.0 0.0
05:09 1.8 -1.1 81 1028.7 0.0 NE 0.0 0.0 0.0
05:10 1.8 -1.1 81 1028.7 0.0 NE 0.0 0.0 0.0
05:11 1.8 -1.1 81 1028.8 0.0 NE 0.0 0.0 0.0
05:12 1.8 -1.1 81 1028.7 0.0 NE 0.0 0.0 0.0
05:13 1.8 -1.1 81 1028.7 0.7 NE 0.7 0.0 0.0
05:14 1.8 -1.1 81 1028.8 1.6 N 1.6 0.0 0.0
05:15 1.8 -1.1 81 1028.7 1.6 NE 1.6 0.0 0.0
05:16 1.9 -1.0 81 1028.7 0.0 NE 1.6 0.0 0.0
05:18 1.9 -1.0 81 1028.8 0.7 N 1.6 0.0 0.0
05:19 2.0 -0.9 81 1028.7 0.0 N 1.6 0.0 0.0
05:20 2.0 -0.7 82 1028.7 0.0 N 1.6 0.0 0.0
05:21 2.0 -0.7 82 1028.7 0.0 N 1.6 0.0 0.0
05:22 2.1 -0.6 82 1028.7 0.7 N 1.6 0.0 0.0
05:23 2.1 -0.6 82 1028.7 0.7 N 1.6 0.0 0.0
05:24 2.1 -0.6 82 1028.8 0.0 N 1.6 0.0 0.0
05:25 2.2 -0.5 82 1028.6 0.7 NW 1.6 0.0 0.0
05:26 2.2 -0.5 82 1028.7 0.7 SW 0.7 0.0 0.0
05:27 2.2 -0.5 82 1028.7 0.7 SW 0.7 0.0 0.0
05:28 2.3 -0.5 82 1028.7 0.0 SW 0.7 0.0 0.0
05:29 2.3 -0.5 82 1028.8 0.0 NW 0.7 0.0 0.0
05:30 2.4 -0.4 82 1028.7 0.7 N 0.7 0.0 0.0
05:32 2.4 -0.4 82 1028.6 0.7 NW 0.7 0.0 0.0
05:33 2.4 -0.4 82 1028.7 0.7 N 0.7 0.0 0.0
05:34 2.5 -0.3 82 1028.6 0.7 N 0.7 0.0 0.0
05:35 2.5 -0.3 82 1028.5 0.7 N 0.7 0.0 0.0
05:36 2.5 -0.3 82 1028.5 0.7 N 0.7 0.0 0.0
05:37 2.5 -0.3 82 1028.6 0.0 N 0.7 0.0 0.0
05:38 2.6 -0.2 82 1028.6 0.0 NW 0.7 0.0 0.0
05:39 2.6 -0.2 82 1028.6 1.6 SE 1.6 0.0 0.0
05:40 2.6 -0.2 82 1028.6 1.6 SE 1.6 0.0 0.0
05:41 2.7 -0.1 82 1028.6 0.7 SE 1.6 0.0 0.0
05:42 2.7 -0.1 82 1028.7 0.7 E 1.6 0.0 0.0
05:43 2.7 -0.1 82 1028.6 0.7 NE 1.6 0.0 0.0
05:44 2.7 -0.1 82 1028.5 1.6 NE 1.6 0.0 0.0
05:46 2.7 -0.1 82 1028.6 1.6 NE 1.6 0.0 0.0
05:47 2.8 0.0 82 1028.6 0.7 NW 1.6 0.0 0.0
05:48 2.8 0.0 82 1028.5 0.0 NW 1.6 0.0 0.0
05:49 2.8 0.0 82 1028.5 0.0 NW 1.6 0.0 0.0
05:50 2.8 0.0 82 1028.4 0.0 NW 1.6 0.0 0.0
05:51 2.9 0.1 82 1028.6 0.0 NW 1.6 0.0 0.0
05:52 2.9 0.1 82 1028.5 0.7 SW 1.6 0.0 0.0
05:53 2.9 0.1 82 1028.4 0.0 SW 1.6 0.0 0.0
05:54 2.9 0.1 82 1028.5 0.0 E 1.6 0.0 0.0
05:55 2.9 0.1 82 1028.5 0.7 NE 1.6 0.0 0.0
05:56 2.9 0.1 82 1028.6 0.7 NE 1.6 0.0 0.0
05:57 2.9 0.1 82 1028.4 0.0 NE 0.7 0.0 0.0
05:59 3.0 0.2 82 1028.5 0.7 SE 0.7 0.0 0.0
06:00 3.0 0.2 82 1028.6 0.7 SE 0.7 0.0 0.0
06:01 3.0 0.2 82 1028.5 0.7 SE 0.7 0.0 0.0
06:02 3.0 0.2 82 1028.4 0.7 SE 0.7 0.0 0.0
06:03 3.0 0.2 82 1028.5 0.7 SE 0.7 0.0 0.0
06:04 3.0 0.2 82 1028.5 0.7 SE 0.7 0.0 0.0
06:05 3.0 0.2 82 1028.7 0.7 SE 0.7 0.0 0.0
06:06 3.0 0.2 82 1028.6 0.7 SE 0.7 0.0 0.0
06:07 3.0 0.2 82 1028.4 0.7 SE 0.7 0.0 0.0
06:08 3.0 0.2 82 1028.6 0.7 N 0.7 0.0 0.0
06:09 3.0 0.2 82 1028.6 0.7 N 0.7 0.0 0.0
06:10 3.1 0.3 82 1028.5 0.7 N 0.7 0.0 0.0
06:11 3.1 0.3 82 1028.5 0.7 N 1.6 0.0 0.0
06:12 3.1 0.3 82 1028.4 0.7 N 1.6 0.0 0.0
06:14 3.2 0.4 82 1028.5 0.7 N 1.6 0.0 0.0
06:15 3.2 0.4 82 1028.3 0.0 N 1.6 0.0 0.0
06:16 3.2 0.4 82 1028.5 0.7 E 1.6 0.0 0.0
06:17 3.2 0.4 82 1028.5 0.7 E 1.6 0.0 0.0
06:18 3.2 0.4 82 1028.5 1.6 E 1.6 0.0 0.0
06:19 3.2 0.4 82 1028.5 1.6 NE 1.6 0.0 0.0
06:20 3.3 0.5 82 1028.6 1.6 NE 1.6 0.0 0.0
06:21 3.3 0.5 82 1028.5 0.7 N 1.6 0.0 0.0
06:22 3.3 0.5 82 1028.4 0.7 N 1.6 0.0 0.0
06:23 3.3 0.5 82 1028.4 0.0 N 1.6 0.0 0.0
06:24 3.3 0.5 82 1028.4 0.0 N 1.6 0.0 0.0
06:25 3.3 0.5 82 1028.5 0.0 N 1.6 0.0 0.0
06:26 3.3 0.5 82 1028.5 1.6 N 1.6 0.0 0.0
06:28 3.3 0.5 82 1028.5 1.6 N 1.6 0.0 0.0
06:29 3.3 0.5 82 1028.5 0.7 N 1.6 0.0 0.0
06:30 3.4 0.6 82 1028.5 0.7 N 1.6 0.0 0.0
06:31 3.4 0.6 82 1028.5 0.7 N 1.6 0.0 0.0
06:32 3.4 0.6 82 1028.5 0.7 N 1.6 0.0 0.0
06:33 3.3 0.5 82 1028.6 0.0 N 1.6 0.0 0.0
06:34 3.4 0.6 82 1028.5 0.0 N 1.6 0.0 0.0
06:35 3.3 0.5 82 1028.6 0.0 N 1.6 0.0 0.0
06:36 3.3 0.5 82 1028.5 0.0 N 1.6 0.0 0.0
06:37 3.3 0.5 82 1028.5 0.0 N 1.6 0.0 0.0
06:38 3.3 0.5 82 1028.4 0.0 N 1.6 0.0 0.0
06:39 3.2 0.4 82 1028.4 0.7 N 0.7 0.0 0.0
06:40 3.2 0.4 82 1028.4 0.7 N 0.7 0.0 0.0
06:42 3.2 0.4 82 1028.6 0.7 NE 1.6 0.0 0.0
06:43 3.2 0.4 82 1028.4 0.7 NE 1.6 0.0 0.0
06:44 3.2 0.4 82 1028.6 0.0 NE 1.6 0.0 0.0
06:45 3.2 0.4 82 1028.4 0.0 NE 1.6 0.0 0.0
06:46 3.2 0.4 82 1028.4 0.0 SE 1.6 0.0 0.0
06:47 3.2 0.4 82 1028.5 0.7 SE 1.6 0.0 0.0
06:48 3.2 0.4 82 1028.4 0.7 SE 1.6 0.0 0.0
06:49 3.2 0.4 82 1028.5 0.7 SE 1.6 0.0 0.0
06:50 3.2 0.4 82 1028.4 1.6 N 1.6 0.0 0.0
06:51 3.2 0.4 82 1028.6 0.7 N 1.6 0.0 0.0
06:52 3.2 0.4 82 1028.5 0.7 N 1.6 0.0 0.0
06:53 3.3 0.5 82 1028.5 1.6 N 1.6 0.0 0.0
06:54 3.3 0.5 82 1028.6 0.7 E 1.6 0.0 0.0
06:56 3.3 0.5 82 1028.5 0.7 NW 1.6 0.0 0.0
06:57 3.4 0.6 82 1028.5 1.6 NW 1.6 0.0 0.0
06:58 3.4 0.6 82 1028.4 0.0 NW 1.6 0.0 0.0
06:59 3.4 0.6 82 1028.5 0.7 NE 1.6 0.0 0.0
07:00 3.4 0.6 82 1028.5 0.7 NE 1.6 0.0 0.0
07:01 3.4 0.6 82 1028.5 0.7 NE 1.6 0.0 0.0
07:02 3.4 0.6 82 1028.4 0.7 NE 1.6 0.0 0.0
07:03 3.4 0.6 82 1028.4 0.7 NE 1.6 0.0 0.0
07:04 3.4 0.6 82 1028.4 0.7 NE 1.6 0.0 0.0
07:05 3.4 0.6 82 1028.4 0.7 NE 1.6 0.0 0.0
07:06 3.4 0.6 82 1028.4 0.7 NE 1.6 0.0 0.0
07:07 3.4 0.6 82 1028.3 0.7 NE 1.6 0.0 0.0
07:08 3.5 0.7 82 1028.4 0.7 NW 0.7 0.0 0.0
07:09 3.6 0.8 82 1028.5 0.7 NW 1.6 0.0 0.0
07:10 3.6 0.8 82 1028.4 0.7 W 1.6 0.0 0.0
07:12 3.6 0.8 82 1028.3 1.6 N 1.6 0.0 0.0
07:13 3.6 0.8 82 1028.4 0.7 N 1.6 0.0 0.0
07:14 3.7 0.9 82 1028.3 0.7 N 1.6 0.0 0.0
07:15 3.7 0.9 82 1028.4 1.6 N 1.6 0.0 0.0
07:16 3.7 0.9 82 1028.4 1.6 N 1.6 0.0 0.0
07:17 3.7 0.9 82 1028.5 1.6 N 1.6 0.0 0.0
07:18 3.7 0.9 82 1028.4 0.7 N 1.6 0.0 0.0
07:19 3.7 0.9 82 1028.5 1.6 N 1.6 0.0 0.0
07:20 3.7 0.9 82 1028.4 1.6 N 1.6 0.0 0.0
07:21 3.8 1.0 82 1028.4 1.6 N 1.6 0.0 0.0
07:22 3.8 1.0 82 1028.3 0.7 NW 1.6 0.0 0.0
07:23 3.8 1.0 82 1028.3 0.7 NW 1.6 0.0 0.0
07:24 3.8 1.0 82 1028.3 0.7 NW 1.6 0.0 0.0
07:26 3.8 1.0 82 1028.3 0.7 NW 1.6 0.0 0.0
07:27 3.8 1.0 82 1028.3 0.0 NW 1.6 0.0 0.0
07:28 3.8 1.0 82 1028.3 0.0 NW 1.6 0.0 0.0
07:29 3.8 1.0 82 1028.3 0.7 NE 1.6 0.0 0.0
07:30 3.8 1.0 82 1028.4 0.7 NE 1.6 0.0 0.0
07:31 3.8 1.0 82 1028.2 0.7 NE 0.7 0.0 0.0
07:32 3.8 1.0 82 1028.3 1.6 N 1.6 0.0 0.0
07:33 3.8 1.0 82 1028.3 1.6 N 1.6 0.0 0.0
07:34 3.9 1.1 82 1028.2 1.6 N 1.6 0.0 0.0
07:35 3.8 1.0 82 1028.3 1.6 N 1.6 0.0 0.0
07:36 3.8 1.0 82 1028.3 1.6 N 1.6 0.0 0.0
07:37 3.8 1.0 82 1028.2 1.6 N 1.6 0.0 0.0
07:39 3.9 1.1 82 1028.2 0.7 NW 1.6 0.0 0.0
07:40 3.9 1.1 82 1028.1 0.7 N 1.6 0.0 0.0
07:41 3.9 1.1 82 1028.2 0.7 N 1.6 0.0 0.0
07:42 3.9 1.1 82 1028.2 0.7 N 1.6 0.0 0.0
07:43 3.9 1.1 82 1028.2 0.7 N 1.6 0.0 0.0
07:44 3.9 1.1 82 1028.2 0.7 N 1.6 0.0 0.0
07:45 3.9 1.1 82 1028.2 0.7 N 1.6 0.0 0.0
07:46 3.9 1.1 82 1028.2 0.0 N 1.6 0.0 0.0
07:47 3.9 1.1 82 1028.2 0.7 E 1.6 0.0 0.0
07:48 3.9 1.1 82 1028.3 0.7 S 1.6 0.0 0.0
07:49 3.9 1.1 82 1028.2 1.6 SE 1.6 0.0 0.0
07:50 3.8 1.0 82 1028.1 0.7 NE 1.6 0.0 0.0
07:51 3.8 1.0 82 1028.0 0.7 NE 1.6 0.0 0.0
07:52 3.8 1.0 82 1028.1 0.7 NE 1.6 0.0 0.0
07:54 3.7 0.9 82 1028.1 0.7 N 1.6 0.0 0.0
07:55 3.7 0.9 82 1028.1 0.7 N 1.6 0.0 0.0
07:56 3.7 0.9 82 1028.2 0.0 N 1.6 0.0 0.0
07:57 3.7 0.9 82 1028.2 0.7 N 1.6 0.0 0.0
07:58 3.7 0.9 82 1028.2 0.7 NE 1.6 0.0 0.0
07:59 3.7 0.9 82 1028.2 0.7 NE 0.7 0.0 0.0
08:00 3.7 0.9 82 1028.3 0.7 NE 0.7 0.0 0.0
08:01 3.7 0.9 82 1028.3 0.7 NE 0.7 0.0 0.0
08:02 3.7 0.9 82 1028.2 0.7 NE 0.7 0.0 0.0
08:03 3.7 0.9 82 1028.1 0.7 NE 0.7 0.0 0.0
08:04 3.7 0.9 82 1028.2 0.7 NE 0.7 0.0 0.0
08:05 3.6 0.8 82 1028.1 1.6 NE 1.6 0.0 0.0
08:06 3.6 0.8 82 1028.2 1.6 NE 1.6 0.0 0.0
08:08 3.5 0.7 82 1028.1 0.7 N 1.6 0.0 0.0
08:09 3.5 0.7 82 1028.2 0.7 N 1.6 0.0 0.0
08:10 3.5 0.7 82 1028.1 0.7 N 1.6 0.0 0.0
08:11 3.5 0.7 82 1028.1 0.7 N 1.6 0.0 0.0
08:12 3.5 0.7 82 1028.1 0.7 N 1.6 0.0 0.0
08:13 3.5 0.7 82 1028.1 0.7 N 1.6 0.0 0.0
08:14 3.5 0.7 82 1028.2 0.7 N 1.6 0.0 0.0
08:15 3.5 0.7 82 1028.1 0.7 SE 1.6 0.0 0.0
08:16 3.5 0.7 82 1028.0 1.6 SE 1.6 0.0 0.0
08:17 3.5 0.7 82 1028.2 0.7 SE 1.6 0.0 0.0
08:18 3.5 0.7 82 1028.1 0.7 SE 1.6 0.0 0.0
08:19 3.5 0.7 82 1028.2 0.7 SE 1.6 0.0 0.0
08:20 3.5 0.7 82 1028.2 0.7 SE 1.6 0.0 0.0
08:22 3.5 0.7 82 1028.1 0.7 SE 1.6 0.0 0.0
08:23 3.5 0.7 82 1028.2 1.6 SE 1.6 0.0 0.0
08:24 3.5 0.7 82 1028.2 1.6 SE 1.6 0.0 0.0
08:25 3.5 0.7 82 1028.1 0.7 NE 1.6 0.0 0.0
08:26 3.5 0.7 82 1028.2 1.6 W 1.6 0.0 0.0
08:27 3.5 0.7 82 1028.2 2.2 SW 2.2 0.0 0.0
08:28 3.5 0.7 82 1028.1 0.7 SW 2.2 0.0 0.0
08:29 3.4 0.6 82 1028.0 0.7 S 2.2 0.0 0.0
08:30 3.4 0.6 82 1028.1 0.7 S 2.2 0.0 0.0
08:31 3.4 0.6 82 1028.1 0.7 S 2.2 0.0 0.0
08:32 3.4 0.6 82 1028.2 1.6 SE 2.2 0.0 0.0
08:33 3.4 0.6 82 1028.2 2.2 SE 2.2 0.0 0.0
08:34 3.4 0.6 82 1028.1 2.2 SE 2.2 0.0 0.0
08:36 3.4 0.6 82 1028.3 1.6 SE 2.2 0.0 0.0
08:37 3.4 0.6 82 1028.1 1.6 SE 2.2 0.0 0.0
08:38 3.4 0.6 82 1028.2 1.6 SE 2.2 0.0 0.0
08:39 3.4 0.6 82 1028.2 1.6 SE 2.2 0.0 0.0
08:40 3.4 0.6 82 1028.2 1.6 SE 2.2 0.0 0.0
08:41 3.4 0.6 82 1028.2 1.6 SE 2.2 0.0 0.0
08:42 3.4 0.6 82 1028.3 2.2 SE 2.2 0.0 0.0
08:43 3.5 0.7 82 1028.2 2.2 E 2.2 0.0 0.0
08:44 3.5 0.7 82 1028.2 2.2 NE 2.2 0.0 0.0
08:45 3.5 0.7 82 1028.2 1.6 SSE 2.2 0.0 0.0
08:46 3.5 0.7 82 1028.3 2.2 SSE 2.2 0.0 0.0
08:47 3.6 0.8 82 1028.2 3.1 SE 3.1 0.0 0.0
08:48 3.6 0.8 82 1028.3 3.1 SE 3.1 0.0 0.0
08:50 3.6 0.8 82 1028.2 3.1 SE 3.8 0.0 0.0
08:51 3.7 0.9 82 1028.2 3.1 E 3.8 0.0 0.0
08:52 3.7 0.9 82 1028.2 3.8 E 3.8 0.0 0.0
08:53 3.7 0.9 82 1028.2 3.1 N 3.8 0.0 0.0
08:54 3.7 0.9 82 1028.4 3.1 NE 3.8 0.0 0.0
08:55 3.8 1.0 82 1028.2 3.1 SE 3.8 0.0 0.0
08:56 3.8 1.0 82 1028.2 4.5 ESE 4.5 0.0 0.0
08:57 3.8 1.0 82 1028.2 4.5 E 4.5 0.0 0.0
08:58 3.9 1.1 82 1028.2 3.8 E 5.4 0.0 0.0
08:59 3.9 1.1 82 1028.2 3.8 SE 5.4 0.0 0.0
09:00 3.9 1.1 82 1028.2 3.1 E 5.4 0.0 0.0
09:01 3.9 1.1 82 1028.2 3.1 E 5.4 0.0 0.0
09:02 3.9 1.1 82 1028.1 3.1 E 5.4 0.0 0.0
09:04 3.9 1.1 82 1028.1 3.1 E 5.4 0.0 0.0
09:05 4.2 1.6 83 1028.1 3.1 SE 5.4 0.0 0.0
09:06 4.2 1.6 83 1028.0 2.2 NE 5.4 0.0 0.0
09:07 4.3 1.7 83 1028.0 3.1 SE 5.4 0.0 0.0
09:08 4.3 1.7 83 1028.0 3.1 SE 3.8 0.0 0.0
09:09 4.3 1.7 83 1027.9 3.8 SE 3.8 0.0 0.0
09:10 4.3 1.7 83 1027.9 3.8 SE 4.5 0.0 0.0
09:11 4.4 1.8 83 1028.2 3.8 SE 4.5 0.0 0.0
09:12 4.4 1.8 83 1028.0 4.5 SE 4.5 0.0 0.0
09:13 4.5 1.9 83 1028.1 4.5 SE 4.5 0.0 0.0
09:14 4.5 1.9 83 1027.9 3.8 S 4.5 0.0 0.0
09:15 4.6 2.0 83 1028.0 4.5 E 4.5 0.0 0.0
09:16 4.6 2.0 83 1028.0 3.8 SE 4.5 0.0 0.0
09:18 4.7 2.1 83 1028.1 3.1 SE 4.5 0.0 0.0
09:19 4.8 2.2 83 1027.9 1.6 SE 4.5 0.0 0.0
09:20 4.8 2.2 83 1027.9 3.1 SE 4.5 0.0 0.0
09:21 4.8 2.2 83 1028.0 2.2 E 4.5 0.0 0.0
09:22 4.8 2.2 83 1027.8 3.8 SE 4.5 0.0 0.0
09:23 4.9 2.3 83 1027.9 3.1 SE 4.5 0.0 0.0
09:24 4.9 2.3 83 1027.9 3.1 SE 4.5 0.0 0.0
09:25 4.9 2.3 83 1028.0 3.8 SE 4.5 0.0 0.0
09:26 5.0 2.4 83 1027.8 3.8 SE 3.8 0.0 0.0
09:27 5.0 2.4 83 1027.9 3.1 SE 3.8 0.0 0.0
09:28 5.1 2.5 83 1027.8 3.8 SE 3.8 0.0 0.0
09:29 5.1 2.5 83 1027.9 4.5 SE 4.5 0.0 0.0
09:30 5.2 2.6 83 1028.0 4.5 SE 4.5 0.0 0.0
09:32 5.4 2.7 83 1027.9 6.0 SE 6.0 0.0 0.0
09:33 5.4 2.7 83 1027.9 6.0 SE 6.0 0.0 0.0
09:34 5.5 2.8 83 1027.9 5.4 SE 6.0 0.0 0.0
09:35 5.6 2.9 83 1027.8 4.5 SE 6.0 0.0 0.0
09:36 5.6 2.9 83 1027.8 4.5 SE 6.0 0.0 0.0
09:37 5.6 2.9 83 1027.9 5.4 SE 6.0 0.0 0.0
09:38 5.7 3.0 83 1028.0 4.5 SE 6.0 0.0 0.0
09:39 5.8 3.1 83 1027.8 5.4 SE 6.0 0.0 0.0
09:40 5.8 3.1 83 1028.0 6.0 SE 6.0 0.0 0.0
09:41 5.9 3.2 83 1027.8 5.4 SE 6.0 0.0 0.0
09:42 6.0 3.3 83 1027.9 5.4 SE 6.9 0.0 0.0
09:43 6.0 3.3 83 1027.9 6.0 S 6.9 0.0 0.0
09:44 6.1 3.4 83 1027.9 6.9 SE 7.6 0.0 0.0
09:46 6.2 3.5 83 1028.0 6.0 SE 7.6 0.0 0.0
09:47 6.3 3.6 83 1028.0 6.0 SE 7.6 0.0 0.0
09:48 6.3 3.6 83 1027.8 6.0 SE 7.6 0.0 0.0
09:49 6.4 3.7 83 1028.0 5.4 SE 7.6 0.0 0.0
09:50 6.4 3.6 82 1027.9 5.4 SE 7.6 0.0 0.0
09:51 6.4 3.7 83 1027.9 6.0 SE 7.6 0.0 0.0
09:52 6.5 3.7 82 1027.8 6.0 SE 7.6 0.0 0.0
09:53 6.5 3.7 82 1027.9 6.0 SE 7.6 0.0 0.0
09:54 6.6 3.7 82 1028.0 6.0 SE 6.9 0.0 0.0
09:55 6.6 3.7 82 1027.9 5.4 SE 6.9 0.0 0.0
09:56 6.7 3.8 82 1028.0 5.4 SE 6.0 0.0 0.0
09:57 6.7 3.8 82 1027.9 6.0 SE 6.0 0.0 0.0
09:58 6.8 3.9 82 1027.9 6.0 SE 6.0 0.0 0.0
10:00 6.9 4.0 82 1027.9 6.0 SE 6.0 0.0 0.0
10:01 6.9 4.0 82 1028.0 6.0 SE 6.0 0.0 0.0
10:02 7.0 4.1 82 1028.1 6.0 SE 6.0 0.0 0.0
10:03 7.1 4.2 82 1028.0 5.4 SE 6.0 0.0 0.0
10:04 7.1 4.2 82 1028.0 5.4 SE 6.0 0.0 0.0
10:05 7.1 4.2 82 1028.1 5.4 S 6.0 0.0 0.0
10:06 7.2 4.3 82 1028.1 5.4 SE 6.0 0.0 0.0
10:07 7.2 4.3 82 1028.1 3.8 S 6.0 0.0 0.0
10:08 7.3 4.4 82 1028.0 6.0 S 6.0 0.0 0.0
10:09 7.3 4.4 82 1027.9 6.0 SE 6.0 0.0 0.0
10:10 7.4 4.4 81 1027.9 6.0 S 6.0 0.0 0.0
10:11 7.4 4.4 81 1027.9 3.8 SE 6.0 0.0 0.0
10:12 7.5 4.5 81 1027.8 5.4 SE 6.0 0.0 0.0
10:14 7.6 4.6 81 1027.9 5.4 SE 6.0 0.0 0.0
10:15 7.7 4.6 81 1028.0 3.1 SE 6.0 0.0 0.0
10:16 7.7 4.6 81 1027.8 6.0 SE 6.0 0.0 0.0
10:17 7.8 4.7 81 1027.9 5.4 SE 6.0 0.0 0.0
10:18 7.8 4.7 81 1028.1 4.5 E 6.0 0.0 0.0
10:19 7.9 4.8 81 1027.8 5.4 SE 6.0 0.0 0.0
10:20 7.9 4.8 81 1027.8 5.4 SE 6.0 0.0 0.0
10:21 8.0 4.9 81 1027.9 6.0 S 6.0 0.0 0.0
10:22 8.0 4.9 81 1027.9 4.5 SE 6.0 0.0 0.0
10:23 8.1 5.0 81 1028.0 3.1 S 6.0 0.0 0.0
10:24 8.1 5.0 81 1028.1 3.8 SE 6.0 0.0 0.0
10:25 8.2 5.1 81 1028.0 3.8 SE 6.0 0.0 0.0
10:26 8.3 5.2 81 1028.0 4.5 SE 6.0 0.0 0.0
10:28 8.5 5.2 80 1028.0 5.4 S 6.0 0.0 0.0
10:29 8.5 5.2 80 1028.0 4.5 SE 6.0 0.0 0.0
10:30 8.5 5.2 80 1027.9 6.9 S 6.9 0.0 0.0
10:31 8.6 5.3 80 1027.7 4.5 S 6.9 0.0 0.0
10:32 8.7 5.4 80 1027.7 4.5 SE 6.9 0.0 0.0
10:33 8.7 5.4 80 1027.7 4.5 SE 6.9 0.0 0.0
10:34 8.8 5.5 80 1027.8 4.5 SE 6.9 0.0 0.0
10:35 8.8 5.5 80 1027.8 5.4 SE 6.9 0.0 0.0
10:36 8.9 5.6 80 1027.8 5.4 SE 6.9 0.0 0.0
10:37 8.9 5.6 80 1027.6 5.4 S 6.9 0.0 0.0
10:38 9.0 5.7 80 1027.7 4.5 S 6.9 0.0 0.0
10:39 9.1 5.8 80 1027.6 4.5 S 6.9 0.0 0.0
10:40 9.2 5.9 80 1027.8 7.6 S 7.6 0.0 0.0
10:41 9.2 5.8 79 1027.7 6.0 S 7.6 0.0 0.0
10:43 9.3 5.8 79 1027.6 6.9 SE 7.6 0.0 0.0
10:44 9.3 5.8 79 1027.5 6.0 S 7.6 0.0 0.0
10:45 9.4 5.9 79 1027.5 6.0 SW 7.6 0.0 0.0
10:46 9.4 5.9 79 1027.4 6.0 SE 7.6 0.0 0.0
10:47 9.4 5.8 78 1027.5 8.3 SE 8.3 0.0 0.0
10:48 9.4 5.8 78 1027.6 7.6 SE 8.3 0.0 0.0
10:49 9.3 5.7 78 1027.5 6.9 S 8.3 0.0 0.0
10:50 9.3 5.7 78 1027.5 3.8 SW 8.3 0.0 0.0
10:51 9.3 5.7 78 1027.4 4.5 S 8.3 0.0 0.0
10:52 9.3 5.7 78 1027.5 5.4 S 8.3 0.0 0.0
10:53 9.3 5.7 78 1027.4 3.8 S 8.3 0.0 0.0
10:54 9.4 5.6 77 1027.4 5.4 S 8.3 0.0 0.0
10:55 9.4 5.6 77 1027.3 6.9 SE 8.3 0.0 0.0
10:57 9.5 5.7 77 1027.3 4.5 SE 7.6 0.0 0.0
10:58 9.5 5.7 77 1027.3 9.2 S 9.2 0.0 0.0
10:59 9.6 5.8 77 1027.3 8.3 SE 9.2 0.0 0.0
11:00 9.6 5.8 77 1027.4 8.3 SE 9.2 0.0 0.0
11:01 9.6 5.8 77 1027.3 8.3 SE 9.2 0.0 0.0
11:02 9.6 5.8 77 1027.2 8.3 SE 9.2 0.0 0.0
11:03 9.6 5.8 77 1027.1 8.3 SE 9.2 0.0 0.0
11:04 9.6 5.8 77 1027.2 8.3 SE 9.2 0.0 0.0
11:05 9.6 5.8 77 1027.1 8.3 SE 9.2 0.0 0.0
11:06 9.7 5.7 76 1027.1 6.0 SE 9.2 0.0 0.0
11:07 9.8 5.8 76 1027.0 6.9 SE 9.2 0.0 0.0
11:08 9.8 5.8 76 1027.3 6.9 S 9.2 0.0 0.0
11:09 9.8 5.8 76 1027.0 7.6 SE 8.3 0.0 0.0
11:11 9.9 5.9 76 1027.2 7.6 S 8.3 0.0 0.0
11:12 9.9 5.7 75 1027.1 8.3 SE 8.3 0.0 0.0
11:13 9.9 5.7 75 1027.0 6.0 SE 8.3 0.0 0.0
11:14 9.9 5.7 75 1027.0 4.5 S 8.3 0.0 0.0
11:15 10.0 5.8 75 1027.0 5.4 S 8.3 0.0 0.0
11:16 10.0 5.8 75 1027.1 6.0 S 8.3 0.0 0.0
11:17 10.0 5.8 75 1027.1 6.9 SE 8.3 0.0 0.0
11:18 10.0 5.8 75 1027.1 9.2 SE 9.2 0.0 0.0
11:19 10.0 5.8 75 1027.2 9.2 SE 9.2 0.0 0.0
11:20 10.0 5.8 75 1027.1 7.6 SE 9.2 0.0 0.0
11:21 10.0 5.8 75 1026.9 6.0 SE 9.2 0.0 0.0
11:22 10.0 5.6 74 1026.9 6.9 SE 9.2 0.0 0.0
11:23 10.1 5.7 74 1026.9 6.9 SE 9.2 0.0 0.0
11:24 10.1 5.7 74 1026.8 7.6 SE 9.2 0.0 0.0
11:26 10.1 5.7 74 1026.7 4.5 SE 9.2 0.0 0.0
11:27 10.0 5.6 74 1026.8 7.6 SE 9.2 0.0 0.0
11:28 10.0 5.6 74 1026.8 7.6 SE 9.2 0.0 0.0
11:29 10.0 5.6 74 1026.8 6.0 S 8.3 0.0 0.0
11:30 9.9 5.5 74 1026.8 6.9 SE 8.3 0.0 0.0
11:31 9.9 5.3 73 1026.8 4.5 SE 8.3 0.0 0.0
11:32 9.8 5.2 73 1026.7 6.0 SE 8.3 0.0 0.0
11:33 9.8 5.2 73 1026.8 6.0 SE 8.3 0.0 0.0
11:34 9.7 5.1 73 1026.8 5.4 SE 8.3 0.0 0.0
11:35 9.6 5.0 73 1026.7 5.4 S 8.3 0.0 0.0
11:36 9.6 5.0 73 1026.8 5.4 SE 7.6 0.0 0.0
11:37 9.6 5.0 73 1026.5 5.4 SE 7.6 0.0 0.0
11:39 9.8 5.2 73 1026.5 6.9 SE 8.3 0.0 0.0
11:40 9.8 5.2 73 1026.6 7.6 SE 8.3 0.0 0.0
11:41 9.8 5.2 73 1026.6 8.3 S 8.3 0.0 0.0
11:42 9.9 5.3 73 1026.5 9.8 SE 9.8 0.0 0.0
11:43 9.8 5.2 73 1026.5 8.3 SE 11.4 0.0 0.0
11:44 9.8 5.2 73 1026.5 8.3 SE 11.4 0.0 0.0
11:45 9.8 5.2 73 1026.4 8.3 SE 11.4 0.0 0.0
11:46 9.7 5.1 73 1026.7 7.6 SE 11.4 0.0 0.0
11:47 9.6 5.0 73 1026.4 5.4 SE 11.4 0.0 0.0
11:48 9.6 4.8 72 1026.6 6.0 SE 11.4 0.0 0.0
11:49 9.6 5.0 73 1026.5 6.0 SE 11.4 0.0 0.0
11:50 9.6 5.0 73 1026.5 6.9 S 11.4 0.0 0.0
11:51 9.7 5.1 73 1026.5 6.9 S 11.4 0.0 0.0
11:52 9.8 5.2 73 1026.4 6.0 S 11.4 0.0 0.0
11:54 9.9 5.3 73 1026.4 7.6 SE 8.3 0.0 0.0
11:55 10.0 5.4 73 1026.5 9.8 S 9.8 0.0 0.0
11:56 10.0 5.4 73 1026.4 8.3 SE 9.8 0.0 0.0
11:57 10.0 5.2 72 1026.6 9.2 S 9.8 0.0 0.0
11:58 10.0 5.2 72 1026.4 7.6 S 9.8 0.0 0.0
11:59 9.9 5.1 72 1026.5 8.3 S 9.8 0.0 0.0
12:00 9.9 5.1 72 1026.3 6.9 S 9.8 0.0 0.0
12:01 9.9 5.1 72 1026.2 6.9 S 9.8 0.0 0.0
12:02 9.9 5.1 72 1026.3 6.9 S 9.8 0.0 0.0
12:03 9.9 5.1 72 1026.3 6.9 S 9.8 0.0 0.0
12:04 9.9 5.1 72 1026.2 6.9 S 9.8 0.0 0.0
12:05 9.8 5.0 72 1026.3 4.5 S 9.8 0.0 0.0
12:06 9.8 4.8 71 1026.3 9.2 SE 9.2 0.0 0.0
12:08 10.0 5.2 72 1026.3 6.9 S 9.2 0.0 0.0
12:09 10.0 5.2 72 1026.0 6.9 S 9.2 0.0 0.0
12:10 10.1 5.3 72 1026.2 6.9 S 9.2 0.0 0.0
12:11 10.2 5.4 72 1026.0 6.9 SSE 9.2 0.0 0.0
12:12 10.2 5.4 72 1026.0 6.9 SSE 9.2 0.0 0.0
12:13 10.3 5.3 71 1026.1 9.8 E 9.8 0.0 0.0
12:14 10.4 5.4 71 1026.1 7.6 SE 9.8 0.0 0.0
12:15 10.4 5.4 71 1025.9 11.4 E 11.4 0.0 0.0
12:16 10.4 5.4 71 1026.0 8.3 SE 11.4 0.0 0.0
12:17 10.5 5.5 71 1026.0 7.6 S 11.4 0.0 0.0
12:18 10.5 5.5 71 1026.1 9.8 S 11.4 0.0 0.0
12:19 10.5 5.3 70 1026.0 9.8 S 11.4 0.0 0.0
12:20 10.6 5.4 70 1026.1 7.6 SE 11.4 0.0 0.0
12:22 10.5 5.3 70 1026.0 9.2 SE 11.4 0.0 0.0
12:23 10.5 5.3 70 1025.9 7.6 S 11.4 0.0 0.0
12:24 10.4 5.0 69 1026.1 6.9 SE 11.4 0.0 0.0
12:25 10.3 4.9 69 1025.9 4.5 ESE 9.8 0.0 0.0
12:26 10.3 4.9 69 1025.9 5.4 SE 9.8 0.0 0.0
12:27 10.2 4.8 69 1025.9 6.0 SE 9.8 0.0 0.0
12:28 10.2 4.8 69 1025.9 9.8 SE 9.8 0.0 0.0
12:29 10.1 4.7 69 1025.9 8.3 S 9.8 0.0 0.0
12:30 10.0 4.6 69 1025.8 6.0 SE 9.8 0.0 0.0
12:31 10.0 4.6 69 1025.8 5.4 SE 9.8 0.0 0.0
12:32 10.0 4.6 69 1025.7 6.9 S 9.8 0.0 0.0
12:33 9.9 4.5 69 1025.7 6.9 SE 9.8 0.0 0.0
12:34 10.0 4.6 69 1025.8 6.0 SE 9.8 0.0 0.0
12:35 10.0 4.6 69 1025.6 6.0 SE 9.8 0.0 0.0
12:37 10.1 4.7 69 1025.6 7.6 S 9.8 0.0 0.0
12:38 10.2 4.8 69 1025.5 5.4 SE 9.2 0.0 0.0
12:39 10.3 4.9 69 1025.6 9.2 S 9.2 0.0 0.0
12:40 10.3 4.9 69 1025.7 9.2 S 9.2 0.0 0.0
12:41 10.3 4.9 69 1025.5 9.2 SE 9.2 0.0 0.0
12:42 10.4 5.0 69 1025.7 9.2 SE 9.2 0.0 0.0
12:43 10.4 5.0 69 1025.6 8.3 SE 9.2 0.0 0.0
12:44 10.4 5.0 69 1025.4 9.2 SE 9.2 0.0 0.0
12:45 10.3 4.9 69 1025.6 6.9 S 9.8 0.0 0.0
12:46 10.3 4.9 69 1025.5 6.0 S 9.8 0.0 0.0
12:47 10.3 4.9 69 1025.5 5.4 S 9.8 0.0 0.0
12:48 10.4 5.0 69 1025.5 8.3 SE 9.8 0.0 0.0
12:49 10.4 5.0 69 1025.4 7.6 SE 9.8 0.0 0.0
12:51 10.4 4.8 68 1025.4 6.0 SE 9.8 0.0 0.0
12:52 10.5 5.1 69 1025.5 8.3 S 9.8 0.0 0.0
12:53 10.5 5.1 69 1025.3 9.2 SW 9.8 0.0 0.0
12:54 10.5 4.8 68 1025.4 9.8 S 9.8 0.0 0.0
12:55 10.5 4.8 68 1025.4 6.9 S 9.8 0.0 0.0
12:56 10.5 4.8 68 1025.3 7.6 S 9.8 0.0 0.0
12:57 10.4 4.8 68 1025.3 8.3 S 9.8 0.0 0.0
12:58 10.3 4.7 68 1025.4 8.3 SE 9.8 0.0 0.0
12:59 10.2 4.6 68 1025.2 6.9 SW 9.8 0.0 0.0
13:00 10.2 4.6 68 1025.3 7.6 S 9.8 0.0 0.0
13:01 10.2 4.6 68 1025.2 7.6 S 9.8 0.0 0.0
13:02 10.2 4.6 68 1025.2 7.6 S 9.8 0.0 0.0
13:03 10.2 4.6 68 1025.3 7.6 S 9.8 0.0 0.0
13:05 9.8 4.2 68 1025.3 5.4 S 8.3 0.0 0.0
13:06 9.8 4.2 68 1025.2 4.5 SE 8.3 0.0 0.0
13:07 9.9 4.5 69 1025.2 6.9 SW 8.3 0.0 0.0
13:08 10.0 4.6 69 1025.1 6.0 S 8.3 0.0 0.0
13:09 10.1 4.7 69 1025.2 13.0 S 13.0 0.0 0.0
13:10 10.1 4.7 69 1025.1 12.1 SE 13.0 0.0 0.0
13:11 10.2 4.8 69 1025.2 9.8 SE 13.0 0.0 0.0
13:12 10.2 4.8 69 1025.2 12.1 S 13.0 0.0 0.0
13:13 10.3 4.7 68 1025.1 9.8 S 13.0 0.0 0.0
13:14 10.3 4.7 68 1025.3 9.8 SE 13.0 0.0 0.0
13:15 10.3 4.7 68 1025.1 12.1 SE 13.0 0.0 0.0
13:16 10.3 4.7 68 1025.1 12.1 SW 13.0 0.0 0.0
13:17 10.3 4.4 67 1025.2 9.8 S 13.0 0.0 0.0
13:19 10.2 4.3 67 1025.3 7.6 S 13.0 0.0 0.0
13:20 10.2 4.3 67 1025.4 5.4 S 12.1 0.0 0.0
13:21 10.2 4.3 67 1025.2 6.9 S 12.1 0.0 0.0
13:22 10.2 4.6 68 1025.2 7.6 S 12.1 0.0 0.0
13:23 10.2 4.6 68 1025.1 6.9 SE 12.1 0.0 0.0
13:24 10.2 4.6 68 1025.1 6.9 SW 12.1 0.0 0.0
13:25 10.2 4.6 68 1025.2 7.6 SE 12.1 0.0 0.0
13:26 10.2 4.6 68 1025.2 7.6 SE 10.7 0.0 0.0
13:27 10.2 4.6 68 1025.2 10.7 SE 10.7 0.0 0.0
13:28 10.2 4.3 67 1025.2 7.6 S 10.7 0.0 0.0
13:29 10.1 4.3 67 1025.2 9.8 S 10.7 0.0 0.0
13:30 10.0 4.2 67 1025.1 8.3 SE 10.7 0.0 0.0
13:31 9.8 4.0 67 1025.1 9.2 S 10.7 0.0 0.0
13:33 9.7 3.9 67 1024.9 7.6 SE 10.7 0.0 0.0
13:34 9.7 3.9 67 1024.9 6.9 S 10.7 0.0 0.0
13:35 9.6 3.8 67 1025.0 7.6 SE 10.7 0.0 0.0
13:36 9.5 3.7 67 1024.9 6.0 S 10.7 0.0 0.0
13:37 9.5 3.7 67 1025.0 6.9 S 10.7 0.0 0.0
13:38 9.4 3.6 67 1024.8 5.4 S 10.7 0.0 0.0
13:39 9.4 3.6 67 1024.8 7.6 S 10.7 0.0 0.0
13:40 9.4 3.6 67 1024.9 6.9 SE 9.2 0.0 0.0
13:41 9.4 3.8 68 1024.8 7.6 S 9.2 0.0 0.0
13:42 9.4 3.8 68 1024.9 5.4 S 8.3 0.0 0.0
13:43 9.4 3.8 68 1024.9 6.9 S 8.3 0.0 0.0
13:44 9.3 3.7 68 1024.7 8.3 S 8.3 0.0 0.0
13:45 9.3 3.7 68 1024.8 6.9 S 8.3 0.0 0.0
13:47 9.3 3.7 68 1024.7 9.2 SE 9.2 0.0 0.0
13:48 9.3 3.7 68 1024.7 9.2 SE 9.2 0.0 0.0
13:49 9.4 3.8 68 1024.7 9.8 S 9.8 0.0 0.0
13:50 9.4 3.8 68 1024.7 9.8 SE 9.8 0.0 0.0
13:51 9.5 3.9 68 1024.7 11.4 SE 11.4 0.0 0.0
13:52 9.6 4.0 68 1024.8 12.1 S 12.1 0.0 0.0
13:53 9.7 4.1 68 1024.8 10.7 SE 12.1 0.0 0.0
13:54 9.7 4.1 68 1024.7 9.2 SE 12.1 0.0 0.0
13:55 9.7 4.1 68 1024.9 10.7 SE 12.1 0.0 0.0
13:56 9.7 4.1 68 1024.7 9.8 SE 12.1 0.0 0.0
13:57 9.7 4.1 68 1024.8 12.1 SE 12.1 0.0 0.0
13:58 9.7 4.1 68 1024.7 9.2 S 12.1 0.0 0.0
13:59 9.8 4.2 68 1024.8 9.2 E 12.1 0.0 0.0
14:01 9.8 4.2 68 1024.6 12.1 SSE 12.1 0.0 0.0
14:02 9.7 4.1 68 1024.7 6.9 S 12.1 0.0 0.0
14:03 9.7 4.1 68 1024.7 9.2 SE 12.1 0.0 0.0
14:04 9.6 4.0 68 1024.7 6.9 SE 12.1 0.0 0.0
14:05 9.6 4.0 68 1024.7 9.2 S 12.1 0.0 0.0
14:06 9.5 3.9 68 1024.7 6.0 S 12.1 0.0 0.0
14:07 9.5 3.9 68 1024.7 5.4 SE 12.1 0.0 0.0
14:08 9.5 3.9 68 1024.8 10.7 S 12.1 0.0 0.0
14:09 9.5 3.9 68 1024.8 7.6 S 12.1 0.0 0.0
14:10 9.6 4.0 68 1024.6 7.6 SE 12.1 0.0 0.0
14:11 9.6 4.0 68 1024.5 8.3 S 12.1 0.0 0.0
14:12 9.6 4.0 68 1024.5 7.6 S 10.7 0.0 0.0
14:13 9.7 4.1 68 1024.5 10.7 S 10.7 0.0 0.0
14:15 9.7 4.1 68 1024.5 6.9 S 10.7 0.0 0.0
14:16 9.7 4.1 68 1024.6 10.7 SE 10.7 0.0 0.0
14:17 9.7 4.1 68 1024.6 9.2 SE 10.7 0.0 0.0
14:18 9.7 4.1 68 1024.4 7.6 SE 10.7 0.0 0.0
14:19 9.7 4.1 68 1024.3 6.9 SW 10.7 0.0 0.0
14:20 9.6 4.0 68 1024.4 6.9 SE 10.7 0.0 0.0
14:21 9.6 4.0 68 1024.5 9.2 S 10.7 0.0 0.0
14:22 9.5 3.9 68 1024.5 7.6 SE 10.7 0.0 0.0
14:23 9.5 3.9 68 1024.6 10.7 S 10.7 0.0 0.0
14:24 9.4 3.8 68 1024.6 8.3 SE 10.7 0.0 0.0
14:25 9.3 3.7 68 1024.4 6.9 SE 10.7 0.0 0.0
14:26 9.2 3.6 68 1024.5 7.6 S 10.7 0.0 0.0
14:27 9.1 3.5 68 1024.5 8.3 SSE 10.7 0.0 0.0
14:29 9.0 3.4 68 1024.3 5.4 SE 10.7 0.0 0.0
14:30 9.0 3.4 68 1024.4 6.9 SE 10.7 0.0 0.0
14:31 8.9 3.3 68 1024.3 6.0 S 10.7 0.0 0.0
14:32 8.9 3.3 68 1024.4 5.4 S 10.7 0.0 0.0
14:33 8.9 3.3 68 1024.3 7.6 SE 10.7 0.0 0.0
14:34 8.9 3.3 68 1024.4 8.3 S 9.8 0.0 0.0
14:35 8.8 3.2 68 1024.4 8.3 SE 9.2 0.0 0.0
14:36 8.8 3.2 68 1024.4 9.2 SE 9.2 0.0 0.0
14:37 8.8 3.2 68 1024.3 6.9 S 9.2 0.0 0.0
14:38 8.8 3.2 68 1024.5 5.4 S 9.2 0.0 0.0
14:39 8.8 3.2 68 1024.3 4.5 S 9.2 0.0 0.0
14:40 8.8 3.2 68 1024.3 9.2 SE 9.2 0.0 0.0
14:41 8.9 3.5 69 1024.3 10.7 S 10.7 0.0 0.0
14:43 9.0 3.6 69 1024.4 9.8 SE 12.1 0.0 0.0
14:44 9.0 3.4 68 1024.3 6.9 S 12.1 0.0 0.0
14:45 9.1 3.7 69 1024.3 10.7 S 12.1 0.0 0.0
14:46 9.1 3.5 68 1024.3 7.6 S 12.1 0.0 0.0
14:47 9.2 3.6 68 1024.4 12.1 SSE 12.1 0.0 0.0
14:48 9.1 3.5 68 1024.5 9.8 SE 12.1 0.0 0.0
14:49 9.2 3.6 68 1024.3 7.6 SSE 12.1 0.0 0.0
14:50 9.1 3.5 68 1024.4 6.0 SE 12.1 0.0 0.0
14:51 9.1 3.5 68 1024.4 7.6 S 12.1 0.0 0.0
14:52 9.1 3.5 68 1024.4 7.6 S 12.1 0.0 0.0
14:53 9.1 3.5 68 1024.3 6.0 S 12.1 0.0 0.0
14:54 9.1 3.5 68 1024.4 6.0 S 12.1 0.0 0.0
14:55 9.1 3.5 68 1024.3 5.4 S 12.1 0.0 0.0
14:57 9.1 3.5 68 1024.3 6.0 S 9.8 0.0 0.0
14:58 9.1 3.5 68 1024.3 5.4 SE 8.3 0.0 0.0
14:59 9.1 3.5 68 1024.4 6.9 SE 8.3 0.0 0.0
15:00 9.1 3.5 68 1024.3 6.9 SE 8.3 0.0 0.0
15:01 9.1 3.5 68 1024.3 6.0 SE 8.3 0.0 0.0
15:02 9.1 3.5 68 1024.2 6.9 S 8.3 0.0 0.0
15:03 9.1 3.5 68 1024.2 6.9 SE 6.9 0.0 0.0
15:04 9.1 3.5 68 1024.2 6.0 E 6.9 0.0 0.0
15:05 9.1 3.5 68 1024.1 7.6 SE 7.6 0.0 0.0
15:06 9.0 3.4 68 1024.2 6.0 SE 7.6 0.0 0.0
15:07 9.0 3.4 68 1024.3 6.0 SE 7.6 0.0 0.0
15:08 9.0 3.4 68 1024.2 6.0 SE 7.6 0.0 0.0
15:09 8.9 3.3 68 1024.1 4.5 WNW 7.6 0.0 0.0
15:11 8.8 3.2 68 1024.1 7.6 E 7.6 0.0 0.0
15:12 8.7 3.1 68 1024.2 6.0 SSE 7.6 0.0 0.0
15:13 8.7 3.1 68 1024.0 6.0 E 7.6 0.0 0.0
15:14 8.6 3.0 68 1024.1 6.0 SW 7.6 0.0 0.0
15:15 8.6 3.0 68 1024.2 4.5 SE 7.6 0.0 0.0
15:16 8.6 3.0 68 1024.2 4.5 SE 7.6 0.0 0.0
15:17 8.5 2.9 68 1024.1 5.4 SE 7.6 0.0 0.0
15:18 8.5 2.7 67 1024.2 3.8 SE 7.6 0.0 0.0
15:19 8.5 2.7 67 1024.0 3.8 SE 7.6 0.0 0.0
15:20 8.4 2.8 68 1024.1 4.5 SE 7.6 0.0 0.0
15:21 8.4 2.8 68 1024.1 3.8 SE 7.6 0.0 0.0
15:22 8.3 2.7 68 1024.1 5.4 SE 6.9 0.0 0.0
15:23 8.3 2.7 68 1024.2 4.5 S 6.9 0.0 0.0
15:25 8.3 2.7 68 1024.1 4.5 SE 6.0 0.0 0.0
15:26 8.3 2.7 68 1024.1 5.4 SE 6.0 0.0 0.0
15:27 8.3 2.7 68 1024.0 4.5 E 6.0 0.0 0.0
15:28 8.3 2.7 68 1024.2 4.5 SE 6.0 0.0 0.0
15:29 8.3 2.7 68 1024.1 6.0 SE 6.0 0.0 0.0
15:30 8.3 2.7 68 1024.1 4.5 SE 6.0 0.0 0.0
15:31 8.4 2.8 68 1024.2 6.0 SE 6.0 0.0 0.0
15:32 8.4 2.8 68 1024.1 4.5 SE 6.0 0.0 0.0
15:33 8.4 2.8 68 1024.1 6.9 SE 6.9 0.0 0.0
15:34 8.4 2.8 68 1024.2 7.6 S 7.6 0.0 0.0
15:35 8.4 2.8 68 1024.0 8.3 SE 8.3 0.0 0.0
15:36 8.4 2.8 68 1024.1 7.6 S 8.3 0.0 0.0
15:37 8.4 2.8 68 1023.9 6.9 SE 8.3 0.0 0.0
15:39 8.4 2.8 68 1024.0 7.6 SE 8.3 0.0 0.0
15:40 8.3 2.7 68 1023.9 8.3 SE 8.3 0.0 0.0
15:41 8.3 2.7 68 1024.0 6.0 S 8.3 0.0 0.0
15:42 8.3 2.7 68 1023.9 5.4 SE 8.3 0.0 0.0
15:43 8.3 2.7 68 1024.0 4.5 SE 8.3 0.0 0.0
15:44 8.3 2.7 68 1024.0 4.5 SE 8.3 0.0 0.0
15:45 8.2 2.6 68 1024.0 5.4 SE 8.3 0.0 0.0
15:46 8.2 2.6 68 1023.9 5.4 S 8.3 0.0 0.0
15:47 8.2 2.6 68 1024.0 4.5 SE 8.3 0.0 0.0
15:48 8.1 2.6 68 1023.9 3.8 SE 8.3 0.0 0.0
15:49 8.1 2.6 68 1023.8 4.5 SE 8.3 0.0 0.0
15:50 8.0 2.5 68 1023.9 3.8 SE 8.3 0.0 0.0
15:51 8.0 2.5 68 1023.9 3.8 SE 6.0 0.0 0.0
15:52 7.9 2.4 68 1023.9 4.5 SE 6.0 0.0 0.0
15:54 7.9 2.6 69 1023.8 3.8 SE 5.4 0.0 0.0
15:55 7.8 2.5 69 1023.8 3.8 SE 5.4 0.0 0.0
15:56 7.8 2.5 69 1023.8 3.8 SE 4.5 0.0 0.0
15:57 7.7 2.4 69 1023.8 3.1 SE 4.5 0.0 0.0
15:58 7.7 2.4 69 1023.8 4.5 E 4.5 0.0 0.0
15:59 7.7 2.4 69 1023.8 4.5 SE 4.5 0.0 0.0
16:00 7.6 2.3 69 1023.8 3.8 SE 4.5 0.0 0.0
16:01 7.6 2.3 69 1024.0 3.8 SE 4.5 0.0 0.0
16:02 7.6 2.3 69 1023.9 3.8 SE 4.5 0.0 0.0
16:03 7.6 2.3 69 1023.8 3.8 SE 4.5 0.0 0.0
16:04 7.6 2.3 69 1023.8 3.8 SE 4.5 0.0 0.0
16:05 7.5 2.2 69 1023.8 3.8 E 4.5 0.0 0.0
16:06 7.4 2.1 69 1023.7 1.6 SE 4.5 0.0 0.0
16:07 7.4 2.1 69 1023.8 2.2 NE 4.5 0.0 0.0
16:08 7.4 2.1 69 1023.7 2.2 NE 4.5 0.0 0.0
16:10 7.3 2.0 69 1023.7 2.2 SE 3.8 0.0 0.0
16:11 7.3 2.0 69 1023.8 3.1 E 3.8 0.0 0.0
16:12 7.3 2.0 69 1023.7 3.1 SE 3.8 0.0 0.0
16:13 7.2 1.9 69 1023.8 3.1 SE 3.8 0.0 0.0
16:14 7.2 1.9 69 1023.7 3.1 SE 3.8 0.0 0.0
16:15 7.2 1.9 69 1023.7 3.1 SE 3.8 0.0 0.0
16:16 7.1 1.8 69 1023.8 3.1 E 3.1 0.0 0.0
16:17 7.1 1.8 69 1023.8 2.2 SE 3.1 0.0 0.0
16:18 7.1 2.0 70 1023.7 2.2 SE 3.1 0.0 0.0
16:19 7.0 1.7 69 1023.7 2.2 SE 3.1 0.0 0.0
16:20 7.0 1.9 70 1023.7 3.8 SE 3.8 0.0 0.0
16:21 7.0 1.9 70 1023.7 2.2 N 3.8 0.0 0.0
16:22 7.0 1.9 70 1023.8 2.2 N 3.8 0.0 0.0
16:24 6.9 1.8 70 1023.7 0.7 E 3.8 0.0 0.0
16:25 6.8 1.7 70 1023.7 1.6 SE 3.8 0.0 0.0
16:26 6.8 1.7 70 1023.8 3.1 SE 3.8 0.0 0.0
16:27 6.8 1.7 70 1023.6 2.2 N 3.8 0.0 0.0
16:28 6.7 1.6 70 1023.8 1.6 N 3.8 0.0 0.0
16:29 6.7 1.6 70 1023.8 1.6 N 3.8 0.0 0.0
16:30 6.7 1.6 70 1023.5 1.6 ENE 3.8 0.0 0.0
16:31 6.6 1.5 70 1023.6 1.6 NW 3.1 0.0 0.0
16:32 6.6 1.5 70 1023.5 1.6 N 3.1 0.0 0.0
16:33 6.5 1.4 70 1023.6 0.7 N 3.1 0.0 0.0
16:34 6.5 1.4 70 1023.5 1.6 NE 3.1 0.0 0.0
16:35 6.5 1.4 70 1023.2 0.7 N 3.1 0.0 0.0
16:36 6.4 1.3 70 1023.4 1.6 N 2.2 0.0 0.0
16:38 6.3 1.2 70 1023.6 0.7 N 1.6 0.0 0.0
16:39 6.3 1.2 70 1023.5 0.7 N 1.6 0.0 0.0
16:40 6.2 1.1 70 1023.4 0.0 N 1.6 0.0 0.0
16:41 6.2 1.1 70 1023.4 0.0 N 1.6 0.0 0.0
16:42 6.2 1.1 70 1023.4 0.0 N 1.6 0.0 0.0
16:43 6.1 1.0 70 1023.3 0.7 N 1.6 0.0 0.0
16:44 6.1 1.0 70 1023.5 0.7 N 1.6 0.0 0.0
16:45 6.1 1.0 70 1023.3 0.0 N 1.6 0.0 0.0
16:46 6.0 1.1 71 1023.3 0.7 N 1.6 0.0 0.0
16:47 6.0 1.1 71 1023.3 0.7 N 1.6 0.0 0.0
16:48 6.0 1.1 71 1023.4 0.7 N 0.7 0.0 0.0
16:49 5.9 1.0 71 1023.4 1.6 N 1.6 0.0 0.0
16:50 5.9 1.0 71 1023.3 1.6 N 1.6 0.0 0.0
16:52 5.8 1.0 71 1023.4 0.7 NW 1.6 0.0 0.0
16:53 5.8 1.0 71 1023.5 1.6 NW 1.6 0.0 0.0
16:54 5.8 1.0 71 1023.3 0.7 N 1.6 0.0 0.0
16:55 5.7 0.9 71 1023.4 0.7 NW 1.6 0.0 0.0
16:56 5.7 0.9 71 1023.4 0.7 NW 1.6 0.0 0.0
16:57 5.6 0.8 71 1023.4 0.7 NW 1.6 0.0 0.0
16:58 5.6 0.8 71 1023.3 1.6 NW 1.6 0.0 0.0
16:59 5.6 0.8 71 1023.4 1.6 N 1.6 0.0 0.0
17:00 5.6 0.8 71 1023.2 0.7 N 1.6 0.0 0.0
17:01 5.6 0.8 71 1023.4 0.7 N 1.6 0.0 0.0
17:02 5.6 0.8 71 1023.3 0.7 N 1.6 0.0 0.0
17:03 5.6 0.8 71 1023.3 0.7 N 1.6 0.0 0.0
17:04 5.6 0.8 71 1023.4 0.7 N 1.6 0.0 0.0
17:06 5.6 0.8 71 1023.4 0.7 N 1.6 0.0 0.0
17:07 5.3 0.7 72 1023.2 0.7 N 1.6 0.0 0.0
17:08 5.3 0.7 72 1023.2 0.7 NW 1.6 0.0 0.0
17:09 5.2 0.6 72 1023.2 1.6 NW 1.6 0.0 0.0
17:10 5.2 0.6 72 1023.2 1.6 NW 1.6 0.0 0.0
17:11 5.2 0.6 72 1023.2 1.6 NW 1.6 0.0 0.0
17:12 5.2 0.6 72 1023.3 0.7 NW 1.6 0.0 0.0
17:13 5.1 0.5 72 1023.3 1.6 N 1.6 0.0 0.0
17:14 5.1 0.5 72 1023.1 1.6 NW 1.6 0.0 0.0
17:15 5.1 0.5 72 1023.2 1.6 NW 1.6 0.0 0.0
17:16 5.1 0.5 72 1023.2 0.7 NW 1.6 0.0 0.0
17:17 5.0 0.4 72 1023.3 0.7 NE 1.6 0.0 0.0
17:18 5.0 0.4 72 1023.3 1.6 N 1.6 0.0 0.0
17:19 5.0 0.4 72 1023.3 0.7 N 1.6 0.0 0.0
17:20 4.9 0.3 72 1023.5 1.6 N 1.6 0.0 0.0
17:22 4.9 0.3 72 1023.2 1.6 N 1.6 0.0 0.0
17:23 4.8 0.4 73 1023.3 1.6 NW 1.6 0.0 0.0
17:24 4.8 0.4 73 1023.2 1.6 NW 1.6 0.0 0.0
17:25 4.8 0.4 73 1023.2 0.7 NW 1.6 0.0 0.0
17:26 4.8 0.4 73 1023.1 0.7 NW 1.6 0.0 0.0
17:27 4.7 0.3 73 1023.3 0.7 NW 1.6 0.0 0.0
17:28 4.7 0.3 73 1023.3 0.7 NW 1.6 0.0 0.0
17:29 4.6 0.2 73 1023.2 1.6 NW 1.6 0.0 0.0
17:30 4.6 0.2 73 1023.3 0.7 N 1.6 0.0 0.0
17:31 4.6 0.2 73 1023.2 0.0 NE 1.6 0.0 0.0
17:32 4.5 0.1 73 1023.2 0.7 NW 1.6 0.0 0.0
17:33 4.5 0.1 73 1023.2 0.7 NW 1.6 0.0 0.0
17:34 4.5 0.1 73 1023.2 1.6 N 1.6 0.0 0.0
17:35 4.4 0.0 73 1023.2 1.6 N 1.6 0.0 0.0
17:36 4.4 0.0 73 1023.2 0.7 N 1.6 0.0 0.0
17:37 4.4 0.0 73 1023.2 0.7 N 1.6 0.0 0.0
17:38 4.4 0.0 73 1023.3 1.6 N 1.6 0.0 0.0
17:39 4.3 -0.1 73 1023.2 0.7 N 1.6 0.0 0.0
17:40 4.3 -0.1 73 1023.2 0.7 NW 1.6 0.0 0.0
17:41 4.3 -0.1 73 1023.2 0.7 NW 1.6 0.0 0.0
17:42 4.3 0.1 74 1023.2 1.6 NW 1.6 0.0 0.0
17:43 4.3 0.1 74 1023.2 1.6 NW 1.6 0.0 0.0
17:44 4.3 0.1 74 1023.2 0.7 NW 1.6 0.0 0.0
17:45 4.2 0.0 74 1023.2 0.7 W 1.6 0.0 0.0
17:46 4.2 0.0 74 1023.2 1.6 NW 1.6 0.0 0.0
17:48 4.2 0.0 74 1023.3 0.7 NW 1.6 0.0 0.0
17:49 4.2 0.0 74 1023.2 0.7 NW 1.6 0.0 0.0
17:50 4.2 0.0 74 1023.2 0.7 NW 1.6 0.0 0.0
17:51 4.1 -0.1 74 1023.2 0.7 NW 1.6 0.0 0.0
17:52 4.1 -0.1 74 1023.2 0.7 NW 1.6 0.0 0.0
17:53 4.1 -0.1 74 1023.2 0.7 NW 1.6 0.0 0.0
17:54 4.1 -0.1 74 1023.2 0.7 NW 1.6 0.0 0.0
17:55 4.1 -0.1 74 1023.3 1.6 N 1.6 0.0 0.0
17:56 4.1 -0.1 74 1023.3 1.6 N 1.6 0.0 0.0
17:57 4.1 -0.1 74 1023.3 0.7 N 1.6 0.0 0.0
17:58 4.1 -0.1 74 1023.3 1.6 N 1.6 0.0 0.0
17:59 4.1 -0.1 74 1023.2 2.2 N 2.2 0.0 0.0
18:00 4.1 -0.1 74 1023.2 2.2 N 2.2 0.0 0.0
18:02 4.1 -0.1 74 1023.1 2.2 N 2.2 0.0 0.0
18:03 4.1 -0.1 74 1023.2 2.2 N 2.2 0.0 0.0
18:04 4.1 -0.1 74 1023.2 2.2 N 2.2 0.0 0.0
18:05 4.1 -0.1 74 1023.1 2.2 N 2.2 0.0 0.0
18:06 4.1 -0.1 74 1023.1 2.2 N 2.2 0.0 0.0
18:07 4.1 -0.1 74 1023.0 2.2 N 2.2 0.0 0.0
18:08 4.1 -0.1 74 1023.2 2.2 N 2.2 0.0 0.0
18:09 4.1 -0.1 74 1023.1 2.2 N 2.2 0.0 0.0
18:10 4.0 0.0 75 1023.2 0.7 NW 2.2 0.0 0.0
18:11 4.0 0.0 75 1023.2 1.6 N 2.2 0.0 0.0
18:12 4.0 0.0 75 1023.2 0.7 NW 2.2 0.0 0.0
18:13 4.0 0.0 75 1023.1 0.7 NE 2.2 0.0 0.0
18:15 4.0 0.0 75 1023.0 0.7 N 2.2 0.0 0.0
18:16 3.9 -0.1 75 1023.1 1.6 N 2.2 0.0 0.0
18:17 3.9 -0.1 75 1023.1 0.7 N 2.2 0.0 0.0
18:18 3.9 -0.1 75 1023.0 0.7 N 2.2 0.0 0.0
18:19 3.9 -0.1 75 1023.0 0.0 N 1.6 0.0 0.0
18:20 3.9 -0.1 75 1023.0 0.0 N 1.6 0.0 0.0
18:21 3.9 -0.1 75 1022.9 0.7 SW 1.6 0.0 0.0
18:22 3.9 -0.1 75 1023.0 0.7 NW 1.6 0.0 0.0
18:23 3.9 -0.1 75 1022.9 0.7 NE 1.6 0.0 0.0
18:24 3.9 0.1 76 1023.0 1.6 NE 1.6 0.0 0.0
18:25 3.8 0.0 76 1022.9 0.7 NE 1.6 0.0 0.0
18:26 3.9 0.1 76 1023.0 0.7 NE 1.6 0.0 0.0
18:27 3.8 0.0 76 1022.9 0.7 NE 1.6 0.0 0.0
18:29 3.8 0.0 76 1022.9 0.7 N 1.6 0.0 0.0
18:30 3.8 0.0 76 1022.9 0.7 N 1.6 0.0 0.0
18:31 3.8 0.0 76 1022.8 0.7 NW 1.6 0.0 0.0
18:32 3.8 0.0 76 1022.9 0.7 N 1.6 0.0 0.0
18:33 3.8 0.0 76 1022.7 1.6 NW 1.6 0.0 0.0
18:34 3.8 0.0 76 1022.7 0.7 NW 1.6 0.0 0.0
18:35 3.8 0.0 76 1022.7 1.6 N 1.6 0.0 0.0
18:36 3.8 0.0 76 1022.6 1.6 N 1.6 0.0 0.0
18:37 3.7 -0.1 76 1022.8 1.6 SW 1.6 0.0 0.0
18:38 3.7 -0.1 76 1022.8 1.6 N 1.6 0.0 0.0
18:39 3.7 -0.1 76 1022.7 2.2 SE 2.2 0.0 0.0
18:40 3.7 -0.1 76 1022.7 1.6 N 2.2 0.0 0.0
18:41 3.7 -0.1 76 1022.7 1.6 NW 2.2 0.0 0.0
18:42 3.7 -0.1 76 1022.6 0.7 NW 2.2 0.0 0.0
18:44 3.7 -0.1 76 1022.6 1.6 N 2.2 0.0 0.0
18:45 3.7 -0.1 76 1022.4 1.6 N 2.2 0.0 0.0
18:46 3.7 -0.1 76 1022.6 0.7 NE 2.2 0.0 0.0
18:47 3.7 -0.1 76 1022.5 1.6 NE 2.2 0.0 0.0
18:48 3.7 -0.1 76 1022.5 1.6 NE 2.2 0.0 0.0
18:49 3.7 -0.1 76 1022.5 1.6 NE 2.2 0.0 0.0
18:50 3.7 -0.1 76 1022.6 1.6 NE 1.6 0.0 0.0
18:51 3.7 -0.1 76 1022.3 1.6 S 1.6 0.0 0.0
18:52 3.7 0.0 77 1022.6 1.6 S 1.6 0.0 0.0
18:53 3.7 0.0 77 1022.7 1.6 S 1.6 0.0 0.0
18:54 3.7 0.0 77 1022.7 1.6 NW 1.6 0.0 0.0
18:55 3.7 0.0 77 1022.4 1.6 SE 1.6 0.0 0.0
18:56 3.7 0.0 77 1022.6 1.6 E 1.6 0.0 0.0
18:57 3.7 0.0 77 1022.5 1.6 NE 1.6 0.0 0.0
18:59 3.7 0.0 77 1022.6 2.2 E 3.1 0.0 0.0
19:00 3.7 0.0 77 1022.7 2.2 E 3.1 0.0 0.0
19:01 3.7 0.0 77 1022.7 2.2 E 3.1 0.0 0.0
19:02 3.7 0.0 77 1022.7 2.2 E 3.1 0.0 0.0
19:03 3.7 0.0 77 1022.6 2.2 E 3.1 0.0 0.0
19:04 3.7 0.0 77 1022.5 2.2 E 3.1 0.0 0.0
19:05 3.7 0.0 77 1022.6 2.2 S 3.1 0.0 0.0
19:06 3.7 0.0 77 1022.6 2.2 NE 3.1 0.0 0.0
19:07 3.7 0.0 77 1022.6 3.8 E 3.8 0.0 0.0
19:08 3.8 0.1 77 1022.5 1.6 N 3.8 0.0 0.0
19:09 3.7 0.0 77 1022.5 2.2 N 3.8 0.0 0.0
19:10 3.8 0.1 77 1022.5 2.2 E 3.8 0.0 0.0
19:11 3.8 0.1 77 1022.4 1.6 N 3.8 0.0 0.0
19:13 3.8 0.1 77 1022.5 1.6 NE 3.8 0.0 0.0
19:14 3.8 0.1 77 1022.4 1.6 N 3.8 0.0 0.0
19:15 3.8 0.1 77 1022.5 1.6 NE 3.8 0.0 0.0
19:16 3.8 0.1 77 1022.6 0.7 NW 3.8 0.0 0.0
19:17 3.8 0.3 78 1022.5 1.6 S 3.8 0.0 0.0
19:18 3.8 0.3 78 1022.6 1.6 SE 2.2 0.0 0.0
19:19 3.8 0.1 77 1022.5 2.2 E 2.2 0.0 0.0
19:20 3.8 0.3 78 1022.4 1.6 NE 2.2 0.0 0.0
19:21 3.8 0.3 78 1022.4 1.6 SE 2.2 0.0 0.0
19:22 3.8 0.3 78 1022.4 2.2 N 2.2 0.0 0.0
19:23 3.8 0.3 78 1022.5 1.6 NE 2.2 0.0 0.0
19:24 3.8 0.3 78 1022.2 1.6 SE 2.2 0.0 0.0
19:25 3.8 0.3 78 1022.2 1.6 NW 2.2 0.0 0.0
19:27 3.8 0.3 78 1022.4 1.6 N 2.2 0.0 0.0
19:28 3.8 0.3 78 1022.3 0.7 NW 2.2 0.0 0.0
19:29 3.7 0.2 78 1022.3 2.2 N 2.2 0.0 0.0
19:30 3.7 0.2 78 1022.2 2.2 SE 2.2 0.0 0.0
19:31 3.7 0.2 78 1022.2 1.6 NE 2.2 0.0 0.0
19:32 3.7 0.2 78 1022.2 1.6 NE 2.2 0.0 0.0
19:33 3.7 0.2 78 1022.3 2.2 N 2.2 0.0 0.0
19:34 3.7 0.2 78 1022.2 3.8 SE 3.8 0.0 0.0
19:35 3.7 0.2 78 1022.3 2.2 SE 3.8 0.0 0.0
19:36 3.7 0.2 78 1022.3 2.2 SE 3.8 0.0 0.0
19:37 3.7 0.2 78 1022.1 2.2 E 3.8 0.0 0.0
19:38 3.7 0.2 78 1022.4 3.1 E 3.8 0.0 0.0
19:39 3.8 0.3 78 1022.2 2.2 SE 3.8 0.0 0.0
19:40 3.8 0.3 78 1022.2 3.1 SE 3.8 0.0 0.0
19:41 3.8 0.3 78 1022.4 3.1 E 3.8 0.0 0.0
19:43 3.8 0.3 78 1022.4 3.1 SE 3.8 0.0 0.0
19:44 3.8 0.3 78 1022.4 3.1 SE 3.8 0.0 0.0
19:45 3.8 0.3 78 1022.1 3.8 SE 3.8 0.0 0.0
19:46 3.8 0.3 78 1022.2 2.2 E 3.8 0.0 0.0
19:47 3.8 0.3 78 1022.2 3.1 SE 3.8 0.0 0.0
19:48 3.8 0.3 78 1022.2 3.1 SE 3.8 0.0 0.0
19:49 3.9 0.4 78 1022.2 3.8 SE 3.8 0.0 0.0
19:50 3.9 0.6 79 1022.2 3.8 SE 3.8 0.0 0.0
19:51 3.9 0.6 79 1022.2 3.1 SE 3.8 0.0 0.0
19:52 3.9 0.6 79 1022.2 2.2 E 3.8 0.0 0.0
19:53 3.9 0.6 79 1022.2 1.6 SE 3.8 0.0 0.0
19:54 3.9 0.6 79 1022.0 3.1 SE 3.8 0.0 0.0
19:55 3.9 0.6 79 1022.2 3.1 SE 3.8 0.0 0.0
19:56 3.9 0.6 79 1022.1 3.8 SE 3.8 0.0 0.0
19:57 3.9 0.6 79 1022.1 3.1 SE 3.8 0.0 0.0
19:59 4.0 0.7 79 1022.1 3.8 SE 3.8 0.0 0.0
20:00 4.0 0.7 79 1022.2 3.8 SE 3.8 0.0 0.0
20:01 4.0 0.7 79 1022.1 3.8 SE 3.8 0.0 0.0
20:02 4.0 0.7 79 1022.1 3.8 SE 3.8 0.0 0.0
20:03 4.0 0.7 79 1022.1 3.8 SE 3.8 0.0 0.0
20:04 4.0 0.7 79 1022.0 3.8 SE 3.8 0.0 0.0
20:05 4.0 0.7 79 1022.0 2.2 SE 3.8 0.0 0.0
20:06 4.0 0.7 79 1022.0 3.1 SE 3.8 0.0 0.0
20:07 4.0 0.7 79 1022.0 3.1 SE 3.8 0.0 0.0
20:08 4.0 0.7 79 1021.9 2.2 SE 3.8 0.0 0.0
20:09 4.0 0.7 79 1022.0 2.2 SE 3.8 0.0 0.0
20:10 4.0 0.7 79 1022.0 3.1 NE 3.8 0.0 0.0
20:11 4.0 0.7 79 1022.1 2.2 E 3.8 0.0 0.0
20:12 4.0 0.7 79 1022.1 2.2 SE 3.8 0.0 0.0
20:13 4.0 0.7 79 1022.1 4.5 SE 4.5 0.0 0.0
20:14 4.1 0.8 79 1022.0 3.8 SE 4.5 0.0 0.0
20:15 4.1 0.8 79 1021.9 3.8 SE 4.5 0.0 0.0
20:17 4.1 0.8 79 1022.0 3.1 SE 4.5 0.0 0.0
20:18 4.1 0.8 79 1021.9 3.1 E 4.5 0.0 0.0
20:19 4.1 0.8 79 1022.0 3.8 SE 4.5 0.0 0.0
20:20 4.1 0.8 79 1022.1 3.1 SE 4.5 0.0 0.0
20:21 4.1 0.8 79 1022.0 2.2 SE 4.5 0.0 0.0
20:22 4.1 0.8 79 1022.0 3.1 SE 4.5 0.0 0.0
20:23 4.1 0.8 79 1021.9 3.8 SE 4.5 0.0 0.0
20:24 4.1 0.8 79 1022.2 3.1 SE 3.8 0.0 0.0
20:25 4.1 0.8 79 1022.0 3.8 SE 3.8 0.0 0.0
20:26 4.1 0.8 79 1021.8 3.8 SE 3.8 0.0 0.0
20:27 4.1 0.8 79 1022.0 3.1 SE 3.8 0.0 0.0
20:28 4.1 1.0 80 1022.0 3.1 SE 3.8 0.0 0.0
20:29 4.1 0.8 79 1021.9 2.2 E 3.8 0.0 0.0
20:31 4.1 1.0 80 1021.9 3.1 SE 3.8 0.0 0.0
20:32 4.1 1.0 80 1021.8 2.2 SE 3.8 0.0 0.0
20:33 4.1 0.8 79 1021.8 2.2 SE 3.8 0.0 0.0
20:34 4.1 1.0 80 1021.9 2.2 SE 3.8 0.0 0.0
20:35 4.1 1.0 80 1022.0 3.1 SE 3.8 0.0 0.0
20:36 4.1 1.0 80 1022.0 3.1 SE 3.8 0.0 0.0
20:37 4.1 1.0 80 1021.9 2.2 SE 3.8 0.0 0.0
20:38 4.1 0.8 79 1021.9 2.2 E 3.8 0.0 0.0
20:39 4.1 1.0 80 1022.0 1.6 SE 3.8 0.0 0.0
20:40 4.1 1.0 80 1021.8 2.2 SE 3.8 0.0 0.0
20:41 4.1 1.0 80 1021.8 2.2 SE 3.8 0.0 0.0
20:42 4.1 1.0 80 1022.0 2.2 SE 3.8 0.0 0.0
20:43 4.1 1.0 80 1021.8 2.2 SE 3.8 0.0 0.0
20:44 4.1 1.0 80 1021.9 3.1 SE 3.8 0.0 0.0
20:45 4.1 1.0 80 1021.8 2.2 SE 3.8 0.0 0.0
20:47 4.1 1.0 80 1021.8 3.1 SE 3.1 0.0 0.0
20:48 4.1 1.0 80 1021.7 3.1 SE 3.1 0.0 0.0
20:49 4.1 1.0 80 1021.8 3.8 SE 3.8 0.0 0.0
20:50 4.1 1.0 80 1021.8 3.1 SSE 3.8 0.0 0.0
20:51 4.1 1.0 80 1021.8 2.2 SE 4.5 0.0 0.0
20:52 4.1 1.0 80 1021.8 2.2 SE 4.5 0.0 0.0
20:53 4.1 1.0 80 1021.8 3.8 SE 4.5 0.0 0.0
20:54 4.1 1.0 80 1021.7 3.8 SE 4.5 0.0 0.0
20:55 4.1 1.0 80 1021.8 2.2 SE 4.5 0.0 0.0
20:56 4.1 1.0 80 1021.7 3.1 SE 4.5 0.0 0.0
20:57 4.1 1.0 80 1021.8 4.5 SE 4.5 0.0 0.0
20:58 4.1 1.0 80 1021.9 3.8 SE 4.5 0.0 0.0
20:59 4.1 1.0 80 1021.8 3.8 E 4.5 0.0 0.0
21:00 4.1 1.0 80 1021.9 4.5 ESE 4.5 0.0 0.0
21:01 4.1 1.0 80 1021.7 4.5 ESE 4.5 0.0 0.0
21:02 4.1 1.0 80 1021.9 4.5 ESE 4.5 0.0 0.0
21:04 4.1 1.0 80 1021.8 4.5 ESE 4.5 0.0 0.0
21:05 4.2 1.1 80 1021.8 4.5 SE 4.5 0.0 0.0
21:06 4.2 1.1 80 1021.8 2.2 SE 4.5 0.0 0.0
21:07 4.2 1.1 80 1021.8 2.2 SE 4.5 0.0 0.0
21:08 4.2 1.1 80 1021.7 3.1 SE 4.5 0.0 0.0
21:09 4.2 1.1 80 1021.7 3.1 SE 4.5 0.0 0.0
21:10 4.2 1.1 80 1021.8 3.1 NE 4.5 0.0 0.0
21:11 4.2 1.1 80 1021.7 3.1 SE 4.5 0.0 0.0
21:12 4.2 1.1 80 1021.8 3.1 S 4.5 0.0 0.0
21:13 4.2 1.1 80 1021.9 3.8 SE 4.5 0.0 0.0
21:14 4.2 1.1 80 1021.7 3.8 SE 4.5 0.0 0.0
21:15 4.2 1.1 80 1021.7 3.8 NE 4.5 0.0 0.0
21:16 4.2 1.1 80 1021.7 3.1 E 3.8 0.0 0.0
21:17 4.2 1.1 80 1021.7 3.1 SE 3.8 0.0 0.0
21:18 4.2 1.1 80 1021.6 3.8 SE 3.8 0.0 0.0
21:19 4.2 1.1 80 1021.7 3.1 NE 3.8 0.0 0.0
21:20 4.2 1.1 80 1021.7 3.8 S 3.8 0.0 0.0
21:21 4.2 1.1 80 1021.7 4.5 E 4.5 0.0 0.0
21:22 4.2 1.1 80 1021.7 3.8 E 4.5 0.0 0.0
21:23 4.2 1.1 80 1021.7 3.1 SE 4.5 0.0 0.0
21:24 4.2 1.1 80 1021.6 3.1 SE 4.5 0.0 0.0
21:25 4.2 1.1 80 1021.7 2.2 SE 4.5 0.0 0.0
21:26 4.3 1.3 81 1021.6 3.1 S 4.5 0.0 0.0
21:27 4.3 1.2 80 1021.5 3.1 SE 4.5 0.0 0.0
21:28 4.3 1.3 81 1021.6 3.8 SE 4.5 0.0 0.0
21:29 4.3 1.3 81 1021.6 3.1 SE 4.5 0.0 0.0
21:30 4.3 1.3 81 1021.6 4.5 SSE 4.5 0.0 0.0
21:31 4.3 1.2 80 1021.6 3.8 SE 4.5 0.0 0.0
21:32 4.3 1.3 81 1021.7 3.1 S 4.5 0.0 0.0
21:33 4.3 1.3 81 1021.5 3.1 SE 4.5 0.0 0.0
21:34 4.3 1.2 80 1021.6 3.1 SE 4.5 0.0 0.0
21:35 4.3 1.3 81 1021.6 3.8 SE 4.5 0.0 0.0
21:36 4.3 1.2 80 1021.6 3.1 SE 4.5 0.0 0.0
21:37 4.3 1.3 81 1021.5 3.1 E 4.5 0.0 0.0
21:38 4.3 1.2 80 1021.6 3.1 SE 4.5 0.0 0.0
21:40 4.3 1.3 81 1021.5 3.1 SE 4.5 0.0 0.0
21:41 4.3 1.3 81 1021.4 3.8 S 3.8 0.0 0.0
21:42 4.3 1.3 81 1021.7 3.8 SE 3.8 0.0 0.0
21:43 4.3 1.3 81 1021.3 3.8 SE 3.8 0.0 0.0
21:44 4.3 1.3 81 1021.4 3.1 NE 3.8 0.0 0.0
21:45 4.3 1.3 81 1021.4 2.2 SE 4.5 0.0 0.0
21:46 4.3 1.3 81 1021.4 2.2 E 4.5 0.0 0.0
21:47 4.3 1.3 81 1021.4 3.1 N 4.5 0.0 0.0
21:48 4.4 1.4 81 1021.4 2.2 N 4.5 0.0 0.0
21:49 4.4 1.4 81 1021.4 3.8 S 4.5 0.0 0.0
21:50 4.4 1.4 81 1021.4 3.8 SE 4.5 0.0 0.0
21:51 4.4 1.4 81 1021.4 3.8 SE 4.5 0.0 0.0
21:52 4.4 1.4 81 1021.4 3.8 SE 4.5 0.0 0.0
21:53 4.4 1.4 81 1021.3 4.5 SE 4.5 0.0 0.0
21:54 4.4 1.4 81 1021.3 4.5 E 4.5 0.0 0.0
21:55 4.4 1.4 81 1021.4 3.1 SE 4.5 0.0 0.0
21:56 4.4 1.4 81 1021.4 5.4 E 5.4 0.0 0.0
21:57 4.4 1.4 81 1021.3 4.5 NE 5.4 0.0 0.0
21:58 4.5 1.5 81 1021.4 3.8 SE 5.4 0.0 0.0
21:59 4.5 1.5 81 1021.2 4.5 SE 5.4 0.0 0.0
22:00 4.5 1.5 81 1021.3 3.1 SE 5.4 0.0 0.0
22:01 4.5 1.5 81 1021.3 3.1 SE 5.4 0.0 0.0
22:02 4.5 1.5 81 1021.4 3.1 SE 5.4 0.0 0.0
22:03 4.5 1.5 81 1021.3 3.1 SE 5.4 0.0 0.0
22:04 4.5 1.5 81 1021.3 3.1 SE 5.4 0.0 0.0
22:05 4.6 1.6 81 1021.1 2.2 E 5.4 0.0 0.0
22:06 4.6 1.6 81 1021.2 3.8 SE 4.5 0.0 0.0
22:07 4.6 1.6 81 1021.3 4.5 SE 4.5 0.0 0.0
22:09 4.6 1.6 81 1021.2 3.1 N 4.5 0.0 0.0
22:10 4.6 1.6 81 1021.1 3.8 E 4.5 0.0 0.0
22:11 4.6 1.6 81 1021.2 3.1 E 4.5 0.0 0.0
22:12 4.6 1.6 81 1021.3 2.2 E 4.5 0.0 0.0
22:13 4.6 1.6 81 1021.1 2.2 SE 4.5 0.0 0.0
22:14 4.6 1.6 81 1021.1 3.1 SE 4.5 0.0 0.0
22:15 4.6 1.6 81 1021.2 2.2 SE 4.5 0.0 0.0
22:16 4.6 1.6 81 1021.2 3.8 SE 4.5 0.0 0.0
22:17 4.6 1.6 81 1021.0 3.8 SE 4.5 0.0 0.0
22:18 4.6 1.6 81 1021.1 3.1 SE 4.5 0.0 0.0
22:19 4.6 1.6 81 1021.1 2.2 NNW 4.5 0.0 0.0
22:20 4.6 1.6 81 1021.0 3.8 SE 4.5 0.0 0.0
22:21 4.6 1.6 81 1021.0 4.5 SE 4.5 0.0 0.0
22:22 4.6 1.6 81 1021.0 3.8 SE 4.5 0.0 0.0
22:24 4.6 1.6 81 1021.0 2.2 SE 4.5 0.0 0.0
22:25 4.6 1.6 81 1021.0 3.1 NE 4.5 0.0 0.0
22:26 4.6 1.6 81 1020.9 3.1 NE 4.5 0.0 0.0
22:27 4.6 1.6 81 1020.8 2.2 SE 4.5 0.0 0.0
22:28 4.6 1.6 81 1020.9 4.5 E 4.5 0.0 0.0
22:29 4.6 1.6 81 1020.9 4.5 E 4.5 0.0 0.0
22:30 4.6 1.6 81 1021.0 3.1 SE 4.5 0.0 0.0
22:31 4.6 1.6 81 1021.0 3.1 NW 4.5 0.0 0.0
22:32 4.6 1.6 81 1020.8 3.1 N 4.5 0.0 0.0
22:33 4.6 1.6 81 1020.9 3.1 E 6.0 0.0 0.0
22:34 4.6 1.6 81 1021.0 4.5 SE 6.0 0.0 0.0
22:35 4.6 1.6 81 1020.8 3.8 E 6.0 0.0 0.0
22:36 4.6 1.6 81 1020.8 3.1 E 6.0 0.0 0.0
22:37 4.7 1.7 81 1020.9 3.1 SE 6.0 0.0 0.0
22:38 4.7 1.7 81 1020.9 3.8 SE 6.0 0.0 0.0
22:39 4.7 1.7 81 1021.1 5.4 SE 6.0 0.0 0.0
22:40 4.7 1.7 81 1020.8 3.1 SE 6.0 0.0 0.0
22:41 4.7 1.7 81 1020.8 3.1 SE 6.0 0.0 0.0
22:42 4.7 1.7 81 1020.8 3.8 SE 6.0 0.0 0.0
22:44 4.7 1.7 81 1021.0 5.4 SE 5.4 0.0 0.0
22:45 4.7 1.9 82 1021.0 4.5 SE 5.4 0.0 0.0
22:46 4.8 2.0 82 1021.0 4.5 E 5.4 0.0 0.0
22:47 4.8 2.0 82 1021.1 3.1 ENE 5.4 0.0 0.0
22:48 4.8 2.0 82 1021.1 3.1 ENE 5.4 0.0 0.0
22:49 4.8 2.0 82 1021.0 5.4 SE 5.4 0.0 0.0
22:50 4.8 1.8 81 1021.0 3.1 E 5.4 0.0 0.0
22:51 4.8 2.0 82 1020.8 3.1 SE 5.4 0.0 0.0
22:52 4.8 2.0 82 1021.0 3.1 E 5.4 0.0 0.0
22:53 4.8 2.0 82 1020.8 3.1 E 5.4 0.0 0.0
22:54 4.8 2.0 82 1021.0 3.8 SE 5.4 0.0 0.0
22:55 4.8 2.0 82 1020.9 5.4 SE 5.4 0.0 0.0
22:56 4.8 2.0 82 1021.1 5.4 E 5.4 0.0 0.0
22:57 4.8 2.0 82 1020.8 3.1 E 5.4 0.0 0.0
22:59 4.9 2.1 82 1020.9 4.5 E 6.0 0.0 0.0
23:00 4.9 2.1 82 1021.0 4.5 E 6.0 0.0 0.0
23:01 4.9 2.1 82 1021.0 4.5 E 6.0 0.0 0.0
23:02 4.9 2.1 82 1021.0 4.5 E 6.0 0.0 0.0
23:03 4.9 2.1 82 1020.9 4.5 E 6.0 0.0 0.0
23:04 4.9 2.1 82 1020.9 4.5 E 6.0 0.0 0.0
23:05 4.9 2.1 82 1020.9 3.1 SE 6.0 0.0 0.0
23:06 4.9 2.1 82 1021.0 3.1 SE 6.0 0.0 0.0
23:07 5.0 2.2 82 1020.9 3.8 SE 6.0 0.0 0.0
23:08 5.0 2.2 82 1020.9 3.8 SE 6.0 0.0 0.0
23:09 4.9 2.1 82 1021.0 3.8 SE 6.0 0.0 0.0
23:10 4.9 2.1 82 1021.0 3.8 SE 5.4 0.0 0.0
23:11 4.9 2.1 82 1021.0 3.8 E 5.4 0.0 0.0
23:12 4.9 2.1 82 1021.0 3.8 SE 5.4 0.0 0.0
23:13 5.0 2.2 82 1021.1 4.5 E 5.4 0.0 0.0
23:14 4.9 2.1 82 1021.0 4.5 SE 5.4 0.0 0.0
23:15 4.9 2.1 82 1020.8 4.5 S 5.4 0.0 0.0
23:16 4.9 2.1 82 1021.0 5.4 SE 5.4 0.0 0.0
23:17 4.9 2.1 82 1021.0 3.8 SE 5.4 0.0 0.0
23:19 4.9 2.1 82 1021.0 6.0 SE 6.0 0.0 0.0
23:20 4.9 2.1 82 1021.0 4.5 S 6.0 0.0 0.0
23:21 4.9 2.1 82 1021.0 4.5 E 6.0 0.0 0.0
23:22 4.9 2.1 82 1021.1 3.8 SE 6.0 0.0 0.0
23:23 4.9 2.1 82 1020.9 4.5 SE 6.0 0.0 0.0
23:24 4.9 2.1 82 1020.9 4.5 SE 6.0 0.0 0.0
23:25 4.9 2.1 82 1020.8 4.5 E 6.0 0.0 0.0
23:26 4.9 2.1 82 1021.0 3.1 SE 6.0 0.0 0.0
23:27 4.9 2.1 82 1020.9 3.8 SE 6.0 0.0 0.0
23:28 4.9 2.1 82 1021.0 3.1 SE 6.0 0.0 0.0
23:29 4.9 2.1 82 1021.0 3.1 SE 6.0 0.0 0.0
23:30 4.9 2.1 82 1021.0 3.1 SE 6.0 0.0 0.0
23:31 4.9 2.1 82 1021.0 5.4 E 5.4 0.0 0.0
23:32 4.9 2.1 82 1020.8 3.1 SE 5.4 0.0 0.0
23:34 4.8 2.0 82 1020.9 3.1 E 5.4 0.0 0.0
23:35 4.8 2.0 82 1020.8 3.8 SE 5.4 0.0 0.0
23:36 4.8 2.0 82 1020.7 3.1 E 5.4 0.0 0.0
23:37 4.8 2.0 82 1020.9 2.2 NE 5.4 0.0 0.0
23:38 4.8 2.0 82 1021.0 2.2 SE 5.4 0.0 0.0
23:39 4.8 2.0 82 1021.0 3.8 E 5.4 0.0 0.0
23:40 4.8 2.0 82 1020.8 2.2 SE 5.4 0.0 0.0
23:41 4.8 2.0 82 1020.8 3.1 NE 5.4 0.0 0.0
23:42 4.8 2.0 82 1020.9 3.1 E 3.8 0.0 0.0
23:43 4.8 2.0 82 1020.9 3.1 SE 3.8 0.0 0.0
23:44 4.8 2.0 82 1020.7 3.8 NE 3.8 0.0 0.0
23:45 4.8 1.8 81 1020.8 3.8 SE 3.8 0.0 0.0
23:46 4.7 1.7 81 1020.7 4.5 E 4.5 0.0 0.0
23:47 4.7 1.9 82 1020.8 3.1 N 4.5 0.0 0.0
23:49 4.7 1.9 82 1020.7 3.1 NE 4.5 0.0 0.0
23:50 4.7 1.9 82 1020.7 3.8 SE 4.5 0.0 0.0
23:51 4.7 1.9 82 1020.7 3.1 E 4.5 0.0 0.0
23:52 4.7 1.9 82 1020.7 2.2 SE 4.5 0.0 0.0
23:53 4.7 1.9 82 1020.7 4.5 E 4.5 0.0 0.0
23:54 4.7 1.9 82 1020.7 3.1 SE 4.5 0.0 0.0
23:55 4.7 1.9 82 1020.8 3.8 E 4.5 0.0 0.0
23:56 4.7 1.9 82 1020.7 3.1 SE 4.5 0.0 0.0
23:57 4.7 1.9 82 1020.7 3.8 N 4.5 0.0 0.0
23:58 4.7 1.9 82 1020.7 2.2 SE 4.5 0.0 0.0
23:59 4.7 1.9 82 1020.6 3.1 SE 4.5 0.0 0.0

 

 

UK - WEATHER STATION TOPSITES - UK World Weather Websites

Copyright © Carnkie Weather 2009 - 2019.